GFSGBSN_prec_kuchsnow_201.txt.gz
Snowfall_Accumulation
0.0 0.0 0.0 0.0 0.0 0.0 0.0 0.0 0.0 0.0 0.0 0.0 0.0 0.0 0.0 0.0 0.0 0.0 0.0 0.0 0.0 0.0 0.0 0.0 0.0 0.0 0.0 0.0 0.0 0.0 0.0 0.0 0.0 0.0 0.0 0.0 0.0 0.0 0.0 0.0 0.0 0.0 0.0 0.0 0.0 0.0 0.0
0.0 0.0 0.0 0.0 0.0 0.0 0.0 0.0 0.0 0.0 0.0 0.0 0.0 0.0 0.0 0.0 0.0 0.0 0.0 0.0 0.0 0.0 0.0 0.0 0.0 0.0 0.0 0.0 0.0 0.0 0.0 0.0 0.0 0.0 0.0 0.0 0.0 0.0 0.0 0.0 0.0 0.0 0.0 0.0 0.0 0.0 0.0
0.0 0.0 0.0 0.0 0.0 0.0 0.0 0.0 0.0 0.0 0.0 0.0 0.0 0.0 0.0 0.0 0.0 0.0 0.0 0.0 0.0 0.0 0.0 0.0 0.0 0.0 0.0 0.0 0.0 0.0 0.0 0.0 0.0 0.0 0.0 0.0 0.0 0.0 0.0 0.0 0.0 0.0 0.0 0.0 0.0 0.0 0.0
0.0 0.0 0.0 0.0 0.0 0.0 0.0 0.0 0.0 0.0 0.0 0.0 0.0 0.0 0.0 0.0 0.0 0.0 0.0 0.0 0.0 0.0 0.0 0.0 0.0 0.0 0.0 0.0 0.0 0.0 0.0 0.0 0.0 0.0 0.0 0.0 0.0 0.0 0.0 0.0 0.0 0.0 0.0 0.0 0.0 0.0 0.0
0.0 0.0 0.0 0.0 0.0 0.0 0.0 0.0 0.0 0.0 0.0 0.0 0.0 0.0 0.0 0.0 0.0 0.0 0.0 0.0 0.0 0.0 0.0 0.0 0.0 0.0 0.0 0.0 0.0 0.0 0.0 0.0 0.0 0.0 0.0 0.0 0.0 0.0 0.0 0.0 0.0 0.0 0.0 0.0 0.0 0.0 0.0
0.0 0.0 0.0 0.0 0.0 0.0 0.0 0.0 0.0 0.0 0.0 0.0 0.0 0.0 0.0 0.0 0.0 0.0 0.0 0.0 0.0 0.0 0.0 0.0 0.0 0.0 0.0 0.0 0.0 0.0 0.0 0.0 0.0 0.0 0.0 0.0 0.0 0.0 0.0 0.0 0.0 0.0 0.0 0.0 0.0 0.0 0.0
0.0 0.0 0.0 0.0 0.0 0.0 0.0 0.0 0.0 0.0 0.0 0.0 0.0 0.0 0.0 0.0 0.0 0.0 0.0 0.0 0.0 0.0 0.0 0.0 0.0 0.0 0.0 0.0 0.0 0.0 0.0 0.0 0.0 0.0 0.0 0.0 0.0 0.0 0.0 0.0 0.0 0.0 0.0 0.0 0.0 0.0 0.0
0.0 0.0 0.0 0.0 0.0 0.0 0.0 0.0 0.0 0.0 0.0 0.0 0.0 0.0 0.0 0.0 0.0 0.0 0.0 0.0 0.0 0.0 0.0 0.0 0.0 0.0 0.0 0.0 0.0 0.0 0.0 0.0 0.0 0.0 0.0 0.0 0.0 0.0 0.0 0.0 0.0 0.0 0.0 0.0 0.0 0.0 0.0
0.0 0.0 0.0 0.0 0.0 0.0 0.0 0.0 0.0 0.0 0.0 0.0 0.0 0.0 0.0 0.0 0.0 0.0 0.0 0.0 0.0 0.0 0.0 0.0 0.0 0.0 0.0 0.0 0.0 0.0 0.0 0.0 0.0 0.0 0.0 0.0 0.0 0.0 0.0 0.0 0.0 0.0 0.0 0.0 0.0 0.0 0.0
0.0 0.0 0.0 0.0 0.0 0.0 0.0 0.0 0.0 0.0 0.0 0.0 0.0 0.0 0.0 0.0 0.0 0.0 0.0 0.0 0.0 0.0 2.9 0.0 0.0 0.0 0.0 0.0 0.0 0.0 0.0 0.0 0.0 0.0 0.0 0.0 0.0 0.0 0.0 0.0 0.0 0.0 0.0 0.0 0.0 0.0 0.0
0.0 0.0 0.0 0.0 0.0 0.0 0.0 0.0 0.0 0.0 0.0 0.0 0.0 0.0 0.0 0.0 0.0 0.0 0.0 0.0 0.0 0.0 39.4 0.0 0.0 0.0 0.0 0.0 0.0 0.0 0.0 0.0 0.0 0.0 0.0 0.0 0.0 0.0 0.0 0.0 0.0 0.0 0.0 0.0 0.0 0.0 0.0
0.0 0.0 0.0 0.0 0.0 0.0 0.0 0.0 0.0 0.0 0.0 0.0 0.0 0.0 0.0 0.0 0.0 0.0 0.0 0.0 0.0 14.6 51.5 0.0 0.0 0.0 0.0 0.0 0.0 0.0 0.0 0.0 0.0 0.0 0.0 0.0 0.0 0.0 0.0 0.0 0.0 0.0 0.0 0.0 0.0 0.1 0.1
0.0 0.0 0.0 0.0 0.0 0.0 0.0 0.0 0.0 0.0 0.0 0.0 0.0 0.0 0.0 0.0 0.0 0.0 0.0 0.0 31.1 62.8 0.0 0.3 0.0 0.0 0.0 0.0 0.0 0.0 0.0 0.0 0.0 0.4 0.0 0.0 0.0 0.0 0.0 0.0 0.0 0.0 0.0 2.6 2.0 0.9 0.1
0.0 0.0 0.0 0.0 0.0 0.0 0.0 0.0 0.0 0.0 0.0 0.0 0.0 0.0 0.0 0.0 0.0 0.0 0.0 3.3 77.3 6.3 2.1 0.0 0.0 0.0 0.0 0.0 0.0 0.0 0.0 0.0 0.0 0.0 0.1 0.3 0.2 0.0 0.0 0.0 0.0 0.0 0.0 0.6 2.1 0.8 0.0
0.0 0.0 0.0 0.0 0.0 0.0 0.0 0.0 0.0 0.0 0.0 0.0 0.0 0.0 0.0 0.0 0.0 0.0 1.9 75.5 33.8 0.1 0.0 0.0 0.0 0.0 0.0 0.0 0.1 0.0 0.1 0.0 0.0 0.0 1.4 0.9 0.0 0.0 0.0 0.0 0.0 0.0 0.4 0.0 1.9 0.3 1.0
0.0 0.0 0.0 0.0 0.0 0.0 0.0 0.0 0.0 0.0 0.0 0.0 0.0 0.0 0.0 0.0 0.0 0.0 17.9 44.7 13.1 0.0 0.0 0.0 0.6 0.2 0.8 0.1 0.4 0.0 0.2 0.3 0.0 0.0 0.0 0.2 5.8 0.0 0.0 0.0 0.0 0.0 0.0 2.6 4.4 18.2 8.7
0.0 0.0 0.0 0.0 0.0 0.0 0.0 0.0 0.0 0.0 0.0 0.0 0.0 3.4 0.0 0.0 0.0 0.3 56.3 14.1 5.1 0.0 0.0 0.0 0.3 0.9 0.5 0.2 0.7 0.3 0.6 0.0 1.7 0.2 0.0 0.4 2.4 0.3 0.0 0.0 0.1 0.2 0.7 0.7 0.9 5.5 13.8
0.0 0.0 0.0 0.0 0.0 0.0 0.0 0.0 0.0 0.0 0.0 0.0 0.0 28.7 0.0 0.0 16.9 24.6 29.6 9.1 0.6 0.0 0.0 0.0 0.0 0.0 0.8 0.7 0.4 1.2 2.3 1.1 0.0 0.2 0.7 0.5 3.9 5.3 0.1 0.0 0.0 0.0 2.9 5.4 29.2 25.7 15.0
0.0 0.0 0.0 0.0 0.0 0.0 0.0 0.0 0.0 0.0 0.0 0.0 6.6 11.6 0.0 0.0 48.3 31.5 8.3 9.3 3.1 1.9 1.2 2.0 1.3 0.0 0.2 0.5 1.6 1.0 1.6 0.0 0.7 1.1 1.2 1.4 4.4 10.4 3.0 0.8 0.0 2.8 2.9 3.5 7.1 18.6 23.1
0.0 0.0 0.0 0.0 0.0 0.0 0.0 0.0 0.0 0.0 0.0 0.0 12.1 48.8 7.7 0.0 3.7 5.8 7.5 9.9 7.2 0.0 0.9 0.0 1.6 0.0 1.1 3.2 0.6 1.6 2.0 0.9 2.5 2.5 0.2 0.0 2.4 3.6 8.8 1.6 1.2 4.3 1.8 2.4 8.5 22.7 12.6
0.0 0.0 0.0 0.0 0.0 0.0 0.0 0.0 0.0 0.0 0.0 0.0 21.0 28.4 0.0 31.8 13.9 5.4 6.0 4.7 4.8 5.6 1.2 0.0 2.3 0.3 0.9 6.3 3.5 2.8 1.7 3.9 3.2 0.0 0.3 3.5 6.1 4.5 2.7 0.8 0.8 3.0 3.3 2.4 6.7 3.6 10.8
0.0 0.0 0.0 0.0 0.0 0.0 0.0 0.0 0.0 0.0 0.0 0.0 51.3 12.9 1.3 3.0 1.6 8.5 5.7 9.5 4.1 3.4 7.2 5.1 5.1 1.6 1.0 2.8 1.0 3.3 2.6 1.4 4.3 0.1 2.1 2.1 8.8 6.6 11.6 1.2 2.8 5.6 4.6 2.4 5.2 4.1 4.5
0.0 0.0 0.0 0.0 0.0 0.0 0.0 0.0 0.0 0.0 0.0 6.8 3.5 0.0 3.3 2.1 1.5 5.8 6.7 5.7 6.1 7.0 1.5 0.6 2.4 3.0 3.5 1.3 0.1 0.1 0.0 0.0 0.0 1.0 2.1 6.0 13.3 14.1 17.2 3.1 4.0 12.8 8.2 5.7 4.5 1.8 1.4
0.0 0.0 0.0 0.0 0.0 0.0 0.0 0.0 0.0 0.0 0.0 0.0 0.0 0.0 7.9 16.0 4.1 3.3 1.1 0.3 3.3 4.3 14.6 1.7 0.6 2.2 0.0 0.0 0.0 0.0 0.0 0.0 0.0 0.0 1.2 8.7 11.2 11.7 17.1 7.1 21.1 6.8 2.5 1.7 0.8 0.6 0.3
0.0 0.0 0.0 0.0 0.0 0.0 0.0 0.0 0.0 0.0 0.0 0.0 0.0 0.0 4.5 14.6 1.6 3.0 2.0 2.3 0.7 1.7 5.2 6.1 2.1 0.1 0.0 0.0 4.4 14.1 14.9 11.0 7.6 4.6 2.4 2.9 5.9 15.2 18.3 11.2 3.4 1.8 0.3 0.6 3.6 2.7 0.3
0.0 0.0 0.0 0.0 0.0 0.0 0.0 0.0 0.0 0.0 0.0 0.0 0.0 0.0 0.2 9.4 3.9 0.1 1.9 0.4 2.4 5.1 4.9 3.7 0.0 0.0 0.0 2.4 13.0 25.8 18.3 9.0 7.8 4.6 1.7 2.4 3.4 10.1 14.6 14.4 8.7 0.2 0.0 0.0 0.0 9.7 0.5
0.0 0.0 0.0 0.0 0.0 0.0 0.0 0.0 0.0 0.0 0.0 0.0 0.0 0.0 0.2 14.6 0.1 0.0 2.2 2.9 0.7 1.5 4.3 1.6 1.2 3.1 0.0 8.9 23.0 20.9 12.1 1.8 4.6 2.4 5.0 7.6 15.2 21.2 13.9 12.0 1.3 0.5 0.1 0.0 8.8 8.7 2.4
0.0 0.0 0.0 0.0 0.0 0.0 0.0 0.0 0.0 0.0 0.0 0.0 0.0 0.0 0.0 12.6 0.1 0.0 0.0 0.0 0.5 0.4 4.8 2.3 4.7 3.3 6.6 11.4 11.1 13.6 13.4 7.5 5.4 0.9 1.2 2.6 12.1 13.7 11.3 21.2 10.3 0.0 0.1 3.8 2.6 2.6 4.1
0.0 0.0 0.0 0.0 0.0 0.0 0.0 0.0 0.0 0.0 0.0 0.0 0.3 0.0 0.0 0.7 0.5 0.0 0.0 0.0 0.0 0.0 0.5 1.1 1.4 4.0 6.2 8.4 7.6 4.6 7.7 2.9 6.3 11.0 0.3 4.8 3.2 6.1 6.1 5.6 1.8 0.6 1.2 1.5 0.7 2.9 3.9

GFSGBSN_prec_kuchsnow_204.txt.gz
Snowfall_Accumulation
0.0 0.0 0.0 0.0 0.0 0.0 0.0 0.0 0.0 0.0 0.0 0.0 0.0 0.0 0.0 0.0 0.0 0.0 0.0 0.0 0.0 0.0 0.0 0.0 0.0 0.0 0.0 0.0 0.0 0.0 0.0 0.0 0.0 0.0 0.0 0.0 0.0 0.0 0.0 0.0 0.0 0.0 0.0 0.0 0.0 0.0 0.0
0.0 0.0 0.0 0.0 0.0 0.0 0.0 0.0 0.0 0.0 0.0 0.0 0.0 0.0 0.0 0.0 0.0 0.0 0.0 0.0 0.0 0.0 0.0 0.0 0.0 0.0 0.0 0.0 0.0 0.0 0.0 0.0 0.0 0.0 0.0 0.0 0.0 0.0 0.0 0.0 0.0 0.0 0.0 0.0 0.0 0.0 0.0
0.0 0.0 0.0 0.0 0.0 0.0 0.0 0.0 0.0 0.0 0.0 0.0 0.0 0.0 0.0 0.0 0.0 0.0 0.0 0.0 0.0 0.0 0.0 0.0 0.0 0.0 0.0 0.0 0.0 0.0 0.0 0.0 0.0 0.0 0.0 0.0 0.0 0.0 0.0 0.0 0.0 0.0 0.0 0.0 0.0 0.0 0.0
0.0 0.0 0.0 0.0 0.0 0.0 0.0 0.0 0.0 0.0 0.0 0.0 0.0 0.0 0.0 0.0 0.0 0.0 0.0 0.0 0.0 0.0 0.0 0.0 0.0 0.0 0.0 0.0 0.0 0.0 0.0 0.0 0.0 0.0 0.0 0.0 0.0 0.0 0.0 0.0 0.0 0.0 0.0 0.0 0.0 0.0 0.0
0.0 0.0 0.0 0.0 0.0 0.0 0.0 0.0 0.0 0.0 0.0 0.0 0.0 0.0 0.0 0.0 0.0 0.0 0.0 0.0 0.0 0.0 0.0 0.0 0.0 0.0 0.0 0.0 0.0 0.0 0.0 0.0 0.0 0.0 0.0 0.0 0.0 0.0 0.0 0.0 0.0 0.0 0.0 0.0 0.0 0.0 0.0
0.0 0.0 0.0 0.0 0.0 0.0 0.0 0.0 0.0 0.0 0.0 0.0 0.0 0.0 0.0 0.0 0.0 0.0 0.0 0.0 0.0 0.0 0.0 0.0 0.0 0.0 0.0 0.0 0.0 0.0 0.0 0.0 0.0 0.0 0.0 0.0 0.0 0.0 0.0 0.0 0.0 0.0 0.0 0.0 0.0 0.0 0.0
0.0 0.0 0.0 0.0 0.0 0.0 0.0 0.0 0.0 0.0 0.0 0.0 0.0 0.0 0.0 0.0 0.0 0.0 0.0 0.0 0.0 0.0 0.0 0.0 0.0 0.0 0.0 0.0 0.0 0.0 0.0 0.0 0.0 0.0 0.0 0.0 0.0 0.0 0.0 0.0 0.0 0.0 0.0 0.0 0.0 0.0 0.0
0.0 0.0 0.0 0.0 0.0 0.0 0.0 0.0 0.0 0.0 0.0 0.0 0.0 0.0 0.0 0.0 0.0 0.0 0.0 0.0 0.0 0.0 0.0 0.0 0.0 0.0 0.0 0.0 0.0 0.0 0.0 0.0 0.0 0.0 0.0 0.0 0.0 0.0 0.0 0.0 0.0 0.0 0.0 0.0 0.0 0.0 0.0
0.0 0.0 0.0 0.0 0.0 0.0 0.0 0.0 0.0 0.0 0.0 0.0 0.0 0.0 0.0 0.0 0.0 0.0 0.0 0.0 0.0 0.0 0.0 0.0 0.0 0.0 0.0 0.0 0.0 0.0 0.0 0.0 0.0 0.0 0.0 0.0 0.0 0.0 0.0 0.0 0.0 0.0 0.0 0.0 0.0 0.0 0.0
0.0 0.0 0.0 0.0 0.0 0.0 0.0 0.0 0.0 0.0 0.0 0.0 0.0 0.0 0.0 0.0 0.0 0.0 0.0 0.0 0.0 0.0 2.9 0.0 0.0 0.0 0.0 0.0 0.0 0.0 0.0 0.0 0.0 0.0 0.0 0.0 0.0 0.0 0.0 0.0 0.0 0.0 0.0 0.0 0.0 0.0 0.0
0.0 0.0 0.0 0.0 0.0 0.0 0.0 0.0 0.0 0.0 0.0 0.0 0.0 0.0 0.0 0.0 0.0 0.0 0.0 0.0 0.0 0.0 42.8 0.0 0.0 0.0 0.0 0.0 0.0 0.0 0.0 0.0 0.0 0.0 0.0 0.0 0.0 0.0 0.0 0.0 0.0 0.0 0.0 0.0 0.0 0.0 0.0
0.0 0.0 0.0 0.0 0.0 0.0 0.0 0.0 0.0 0.0 0.0 0.0 0.0 0.0 0.0 0.0 0.0 0.0 0.0 0.0 0.0 18.2 56.5 0.2 0.0 0.0 0.0 0.0 0.0 0.0 0.0 0.0 0.0 0.0 0.0 0.0 0.0 0.0 0.0 0.0 0.0 0.0 0.0 0.0 0.0 0.1 0.1
0.0 0.0 0.0 0.0 0.0 0.0 0.0 0.0 0.0 0.0 0.0 0.0 0.0 0.0 0.0 0.0 0.0 0.0 0.0 0.0 34.1 68.5 0.0 0.6 0.0 0.0 0.0 0.0 0.0 0.0 0.0 0.0 0.0 0.4 0.0 0.0 0.0 0.0 0.0 0.0 0.0 0.0 0.0 2.6 2.0 0.9 0.1
0.0 0.0 0.0 0.0 0.0 0.0 0.0 0.0 0.0 0.0 0.0 0.0 0.0 0.0 0.0 0.0 0.0 0.0 0.0 5.5 82.5 6.3 2.1 0.0 0.0 0.0 0.0 0.0 0.0 0.0 0.0 0.0 0.0 0.0 0.1 0.3 0.2 0.0 0.0 0.0 0.0 0.0 0.0 0.6 2.1 0.8 0.0
0.0 0.0 0.0 0.0 0.0 0.0 0.0 0.0 0.0 0.0 0.0 0.0 0.0 0.0 0.0 0.0 0.0 0.0 2.1 80.7 38.0 0.9 0.0 0.0 0.0 0.0 0.0 0.0 0.1 0.0 0.1 0.0 0.0 0.0 1.4 0.9 0.0 0.0 0.0 0.0 0.0 0.0 0.4 0.0 1.9 0.3 1.0
0.0 0.0 0.0 0.0 0.0 0.0 0.0 0.0 0.0 0.0 0.0 0.0 0.0 0.0 0.0 0.0 0.0 0.0 18.9 46.8 14.2 0.0 0.2 0.0 0.8 0.2 0.8 0.1 0.4 0.0 0.2 0.3 0.0 0.0 0.0 0.2 5.8 0.0 0.0 0.0 0.0 0.0 0.0 2.6 4.4 18.2 8.7
0.0 0.0 0.0 0.0 0.0 0.0 0.0 0.0 0.0 0.0 0.0 0.0 0.0 3.5 0.0 0.0 0.0 0.5 56.9 14.1 5.1 0.0 0.0 1.1 0.5 1.2 0.5 0.2 0.7 0.3 0.6 0.0 1.7 0.2 0.0 0.4 2.4 0.3 0.0 0.0 0.1 0.2 0.7 0.7 0.9 5.5 13.8
0.0 0.0 0.0 0.0 0.0 0.0 0.0 0.0 0.0 0.0 0.0 0.0 0.0 29.3 0.0 0.0 17.2 24.9 29.7 9.1 0.6 0.0 0.0 1.1 0.7 0.5 1.0 0.7 0.4 1.2 2.3 1.1 0.0 0.2 0.7 0.5 3.9 5.3 0.1 0.0 0.0 0.0 2.9 5.4 29.2 25.7 15.0
0.0 0.0 0.0 0.0 0.0 0.0 0.0 0.0 0.0 0.0 0.0 0.0 7.1 11.8 0.0 0.0 49.2 31.6 8.3 9.3 3.1 1.9 1.2 2.0 1.3 0.0 0.2 0.5 1.6 1.0 1.6 0.0 0.7 1.1 1.2 1.4 4.4 10.4 3.0 0.8 0.0 2.8 2.9 3.5 7.1 18.6 23.1
0.0 0.0 0.0 0.0 0.0 0.0 0.0 0.0 0.0 0.0 0.0 0.0 12.8 49.9 7.7 0.0 3.7 5.8 7.5 9.9 7.2 0.0 0.9 0.0 2.0 0.0 2.3 3.8 0.6 1.6 2.0 0.9 2.5 2.5 0.2 0.0 2.4 3.6 8.9 1.6 1.2 4.3 1.8 2.4 8.5 22.7 12.6
0.0 0.0 0.0 0.0 0.0 0.0 0.0 0.0 0.0 0.0 0.0 0.0 22.6 29.5 0.0 32.1 13.9 5.4 6.4 4.7 4.9 5.6 1.2 0.0 2.3 0.8 1.7 8.6 4.6 2.8 1.7 3.9 3.2 0.0 0.3 3.5 6.1 4.5 2.7 0.8 0.8 3.0 3.3 2.4 6.7 3.6 10.8
0.0 0.0 0.0 0.0 0.0 0.0 0.0 0.0 0.0 0.0 0.0 0.0 52.7 13.6 1.5 3.1 1.6 8.5 5.7 9.6 4.1 3.4 7.2 5.2 5.1 1.6 1.0 4.4 1.9 4.1 2.6 1.4 4.3 0.1 2.1 2.1 8.8 6.6 11.6 1.2 2.8 5.6 4.6 2.4 5.2 4.1 4.5
0.0 0.0 0.0 0.0 0.0 0.0 0.0 0.0 0.0 0.0 0.0 6.8 3.5 0.0 3.6 2.9 1.7 5.8 6.7 5.7 6.1 7.0 1.5 0.6 2.4 3.0 3.7 1.6 0.1 0.1 0.0 0.0 0.0 1.0 2.1 6.0 13.3 14.1 17.6 3.1 4.0 12.8 8.2 5.7 4.5 1.8 1.4
0.0 0.0 0.0 0.0 0.0 0.0 0.0 0.0 0.0 0.0 0.0 0.0 0.0 0.0 8.9 17.5 4.6 3.3 1.1 0.3 3.3 4.3 14.6 1.7 0.6 2.2 0.0 0.0 0.0 0.0 0.0 0.0 0.0 0.0 1.2 8.7 11.2 13.4 19.8 7.6 23.4 6.8 2.5 1.7 0.8 0.6 0.3
0.0 0.0 0.0 0.0 0.0 0.0 0.0 0.0 0.0 0.0 0.0 0.0 0.0 0.0 5.4 15.6 1.6 3.0 2.0 2.3 0.7 1.7 5.2 6.1 2.1 0.1 0.0 0.0 4.6 15.8 16.9 11.9 7.6 4.6 2.4 2.9 5.9 18.0 21.0 13.5 5.0 1.8 0.3 0.6 3.6 2.7 0.3
0.0 0.0 0.0 0.0 0.0 0.0 0.0 0.0 0.0 0.0 0.0 0.0 0.0 0.0 0.8 11.1 4.3 0.1 1.9 0.4 2.4 5.1 4.9 3.7 0.0 0.0 0.0 2.4 13.8 28.0 20.8 10.1 8.7 4.6 1.7 2.4 3.4 12.9 19.4 17.4 10.1 0.2 0.0 0.0 0.0 9.7 0.5
0.0 0.0 0.0 0.0 0.0 0.0 0.0 0.0 0.0 0.0 0.0 0.0 0.0 0.0 0.2 17.1 0.3 0.0 2.2 2.9 0.7 1.5 4.3 1.6 1.2 3.1 0.0 8.9 25.1 22.7 13.3 1.8 4.8 2.4 5.2 8.1 16.0 23.1 17.4 14.6 1.9 0.5 0.1 0.0 8.8 8.7 2.4
0.0 0.0 0.0 0.0 0.0 0.0 0.0 0.0 0.0 0.0 0.0 0.0 0.0 0.0 0.0 15.0 0.4 0.0 0.0 0.0 0.5 0.4 4.8 2.3 5.0 3.3 7.4 13.0 13.3 13.6 15.4 8.4 5.4 0.9 1.2 2.6 12.1 14.3 12.5 22.2 10.5 0.0 0.1 3.8 2.6 2.6 4.1
0.0 0.0 0.0 0.0 0.0 0.0 0.0 0.0 0.0 0.0 0.0 0.0 0.3 0.0 0.0 0.7 1.4 0.0 0.0 0.0 0.0 0.0 0.5 1.1 1.5 4.0 6.2 9.4 8.7 4.6 7.7 3.9 7.1 11.0 0.3 4.8 3.2 6.1 6.1 5.6 1.8 0.6 1.2 1.5 0.7 2.9 3.9

GFSGBSN_prec_kuchsnow_207.txt.gz
Snowfall_Accumulation
0.0 0.0 0.0 0.0 0.0 0.0 0.0 0.0 0.0 0.0 0.0 0.0 0.0 0.0 0.0 0.0 0.0 0.0 0.0 0.0 0.0 0.0 0.0 0.0 0.0 0.0 0.0 0.0 0.0 0.0 0.0 0.0 0.0 0.0 0.0 0.0 0.0 0.0 0.0 0.0 0.0 0.0 0.0 0.0 0.0 0.0 0.0
0.0 0.0 0.0 0.0 0.0 0.0 0.0 0.0 0.0 0.0 0.0 0.0 0.0 0.0 0.0 0.0 0.0 0.0 0.0 0.0 0.0 0.0 0.0 0.0 0.0 0.0 0.0 0.0 0.0 0.0 0.0 0.0 0.0 0.0 0.0 0.0 0.0 0.0 0.0 0.0 0.0 0.0 0.0 0.0 0.0 0.0 0.0
0.0 0.0 0.0 0.0 0.0 0.0 0.0 0.0 0.0 0.0 0.0 0.0 0.0 0.0 0.0 0.0 0.0 0.0 0.0 0.0 0.0 0.0 0.0 0.0 0.0 0.0 0.0 0.0 0.0 0.0 0.0 0.0 0.0 0.0 0.0 0.0 0.0 0.0 0.0 0.0 0.0 0.0 0.0 0.0 0.0 0.0 0.0
0.0 0.0 0.0 0.0 0.0 0.0 0.0 0.0 0.0 0.0 0.0 0.0 0.0 0.0 0.0 0.0 0.0 0.0 0.0 0.0 0.0 0.0 0.0 0.0 0.0 0.0 0.0 0.0 0.0 0.0 0.0 0.0 0.0 0.0 0.0 0.0 0.0 0.0 0.0 0.0 0.0 0.0 0.0 0.0 0.0 0.0 0.0
0.0 0.0 0.0 0.0 0.0 0.0 0.0 0.0 0.0 0.0 0.0 0.0 0.0 0.0 0.0 0.0 0.0 0.0 0.0 0.0 0.0 0.0 0.0 0.0 0.0 0.0 0.0 0.0 0.0 0.0 0.0 0.0 0.0 0.0 0.0 0.0 0.0 0.0 0.0 0.0 0.0 0.0 0.0 0.0 0.0 0.0 0.0
0.0 0.0 0.0 0.0 0.0 0.0 0.0 0.0 0.0 0.0 0.0 0.0 0.0 0.0 0.0 0.0 0.0 0.0 0.0 0.0 0.0 0.0 0.0 0.0 0.0 0.0 0.0 0.0 0.0 0.0 0.0 0.0 0.0 0.0 0.0 0.0 0.0 0.0 0.0 0.0 0.0 0.0 0.0 0.0 0.0 0.0 0.0
0.0 0.0 0.0 0.0 0.0 0.0 0.0 0.0 0.0 0.0 0.0 0.0 0.0 0.0 0.0 0.0 0.0 0.0 0.0 0.0 0.0 0.0 0.0 0.0 0.0 0.0 0.0 0.0 0.0 0.0 0.0 0.0 0.0 0.0 0.0 0.0 0.0 0.0 0.0 0.0 0.0 0.0 0.0 0.0 0.0 0.0 0.0
0.0 0.0 0.0 0.0 0.0 0.0 0.0 0.0 0.0 0.0 0.0 0.0 0.0 0.0 0.0 0.0 0.0 0.0 0.0 0.0 0.0 0.0 0.0 0.0 0.0 0.0 0.0 0.0 0.0 0.0 0.0 0.0 0.0 0.0 0.0 0.0 0.0 0.0 0.0 0.0 0.0 0.0 0.0 0.0 0.0 0.0 0.0
0.0 0.0 0.0 0.0 0.0 0.0 0.0 0.0 0.0 0.0 0.0 0.0 0.0 0.0 0.0 0.0 0.0 0.0 0.0 0.0 0.0 0.0 0.0 0.0 0.0 0.0 0.0 0.0 0.0 0.0 0.0 0.0 0.0 0.0 0.0 0.0 0.0 0.0 0.0 0.0 0.0 0.0 0.0 0.0 0.0 0.0 0.0
0.0 0.0 0.0 0.0 0.0 0.0 0.0 0.0 0.0 0.0 0.0 0.0 0.0 0.0 0.0 0.0 0.0 0.0 0.0 0.0 0.0 0.0 3.2 0.0 0.0 0.0 0.0 0.0 0.0 0.0 0.0 0.0 0.0 0.0 0.0 0.0 0.0 0.0 0.0 0.0 0.0 0.0 0.0 0.0 0.0 0.0 0.0
0.0 0.0 0.0 0.0 0.0 0.0 0.0 0.0 0.0 0.0 0.0 0.0 0.0 0.0 0.0 0.0 0.0 0.0 0.0 0.0 0.0 0.0 45.8 0.0 0.0 0.0 0.0 0.0 0.0 0.0 0.0 0.0 0.0 0.0 0.0 0.0 0.0 0.0 0.0 0.0 0.0 0.0 0.0 0.0 0.0 0.0 0.0
0.0 0.0 0.0 0.0 0.0 0.0 0.0 0.0 0.0 0.0 0.0 0.0 0.0 0.0 0.0 0.0 0.0 0.0 0.0 0.0 0.0 20.1 60.2 0.2 0.0 0.0 0.0 0.0 0.0 0.0 0.0 0.0 0.0 0.0 0.0 0.0 0.0 0.0 0.0 0.0 0.0 0.0 0.0 0.0 0.0 0.1 0.1
0.0 0.0 0.0 0.0 0.0 0.0 0.0 0.0 0.0 0.0 0.0 0.0 0.0 0.0 0.0 0.0 0.0 0.0 0.0 0.0 34.1 71.6 0.0 0.6 0.0 0.0 0.0 0.0 0.0 0.0 0.0 0.0 0.0 0.4 0.0 0.0 0.0 0.0 0.0 0.0 0.0 0.0 0.0 2.6 2.0 0.9 0.1
0.0 0.0 0.0 0.0 0.0 0.0 0.0 0.0 0.0 0.0 0.0 0.0 0.0 0.0 0.0 0.0 0.0 0.0 0.0 5.5 83.8 6.3 2.3 0.0 0.0 0.0 0.0 0.0 0.0 0.0 0.0 0.0 0.0 0.0 0.1 0.3 0.2 0.0 0.0 0.0 0.0 0.0 0.0 0.6 2.1 0.8 0.0
0.0 0.0 0.0 0.0 0.0 0.0 0.0 0.0 0.0 0.0 0.0 0.0 0.0 0.0 0.0 0.0 0.0 0.0 2.2 81.6 38.6 0.9 0.0 0.0 0.0 0.4 0.1 0.0 0.1 0.0 0.1 0.0 0.0 0.0 1.4 0.9 0.0 0.0 0.0 0.0 0.0 0.0 0.4 0.0 1.9 0.3 1.0
0.0 0.0 0.0 0.0 0.0 0.0 0.0 0.0 0.0 0.0 0.0 0.0 0.0 0.0 0.0 0.0 0.0 0.0 19.6 47.3 14.2 0.0 0.2 0.0 0.8 0.2 1.3 0.1 0.4 0.0 0.2 0.3 0.0 0.0 0.0 0.2 5.8 0.0 0.0 0.0 0.0 0.0 0.0 2.6 4.4 18.2 8.7
0.0 0.0 0.0 0.0 0.0 0.0 0.0 0.0 0.0 0.0 0.0 0.0 0.0 3.7 0.0 0.0 0.0 0.7 57.4 14.1 5.1 0.0 0.0 1.5 1.0 1.7 0.5 0.3 0.7 0.3 0.6 0.0 1.7 0.2 0.0 0.4 2.4 0.3 0.0 0.0 0.1 0.2 0.7 0.7 0.9 5.5 13.8
0.0 0.0 0.0 0.0 0.0 0.0 0.0 0.0 0.0 0.0 0.0 0.0 0.0 29.9 0.0 0.0 17.5 25.2 29.7 9.1 0.6 0.0 0.0 1.1 0.7 0.8 1.8 1.6 1.4 1.2 2.3 1.1 0.0 0.2 0.7 0.5 3.9 5.3 0.1 0.0 0.0 0.0 2.9 5.4 29.2 25.7 15.0
0.0 0.0 0.0 0.0 0.0 0.0 0.0 0.0 0.0 0.0 0.0 0.0 7.7 12.2 0.0 0.0 49.7 31.7 8.3 9.3 3.1 1.9 1.2 2.0 1.3 0.4 0.6 0.9 3.5 1.7 1.6 0.0 0.7 1.1 1.2 1.4 4.4 10.6 3.0 0.8 0.0 2.8 2.9 3.5 7.1 18.6 23.1
0.0 0.0 0.0 0.0 0.0 0.0 0.0 0.0 0.0 0.0 0.0 0.0 13.2 51.0 8.1 0.0 3.9 5.8 7.7 9.9 7.2 0.0 0.9 0.0 2.0 0.0 2.3 4.7 0.6 3.2 2.8 0.9 2.5 2.5 0.2 0.0 2.4 3.6 8.9 1.6 1.2 4.3 1.8 2.4 8.5 22.7 12.6
0.0 0.0 0.0 0.0 0.0 0.0 0.0 0.0 0.0 0.0 0.0 0.0 23.3 30.0 0.0 32.3 14.1 5.5 6.4 4.7 4.9 5.6 1.2 0.0 2.3 0.8 1.7 9.4 4.6 2.8 2.0 3.9 3.2 0.0 0.3 3.5 6.2 4.5 2.7 0.8 0.8 3.0 3.3 2.4 6.7 3.6 10.8
0.0 0.0 0.0 0.0 0.0 0.0 0.0 0.0 0.0 0.0 0.0 0.0 53.7 14.0 1.5 3.1 1.6 8.5 5.7 9.8 4.1 3.4 7.3 5.2 5.1 1.6 1.0 4.4 1.9 6.2 2.6 1.4 4.9 0.1 2.1 2.1 9.6 6.6 11.6 1.2 2.8 5.6 4.6 2.4 5.2 4.1 4.5
0.0 0.0 0.0 0.0 0.0 0.0 0.0 0.0 0.0 0.0 0.0 6.8 3.5 0.0 3.8 3.3 1.9 5.8 6.8 5.7 6.1 7.0 1.5 0.6 2.4 3.1 3.8 1.7 0.1 0.1 0.0 0.0 0.0 2.0 2.7 6.1 13.3 14.6 18.5 3.1 4.0 13.2 8.2 5.7 4.5 1.8 1.4
0.0 0.0 0.0 0.0 0.0 0.0 0.0 0.0 0.0 0.0 0.0 0.0 0.0 0.0 9.3 18.3 4.6 3.3 1.1 0.3 3.3 4.3 14.6 1.7 0.6 2.2 0.0 0.0 0.0 0.0 0.0 0.6 0.0 1.0 1.2 9.5 11.2 13.4 20.8 7.6 25.3 6.8 2.5 1.7 0.8 0.6 0.3
0.0 0.0 0.0 0.0 0.0 0.0 0.0 0.0 0.0 0.0 0.0 0.0 0.0 0.0 5.9 16.5 1.7 3.1 2.0 2.3 0.7 1.7 5.2 6.1 2.1 0.1 0.0 0.0 5.1 16.9 17.6 13.4 9.2 4.6 3.0 2.9 5.9 19.2 22.5 14.8 6.2 1.8 0.3 0.6 3.6 2.7 0.3
0.0 0.0 0.0 0.0 0.0 0.0 0.0 0.0 0.0 0.0 0.0 0.0 0.0 0.0 0.8 12.8 4.8 0.1 1.9 0.4 2.4 5.1 4.9 3.7 0.0 0.0 0.0 2.7 15.6 29.7 21.6 10.1 8.7 4.6 1.7 2.4 3.4 12.9 21.5 19.2 11.5 0.2 0.0 0.0 0.0 9.7 0.5
0.0 0.0 0.0 0.0 0.0 0.0 0.0 0.0 0.0 0.0 0.0 0.0 0.0 0.0 0.2 19.5 0.5 0.0 2.2 2.9 0.7 1.5 4.3 1.6 1.2 3.1 0.0 9.1 27.2 25.1 14.1 1.8 4.8 2.4 7.2 9.5 16.0 23.9 18.4 16.1 2.4 0.5 0.1 0.0 9.2 8.7 2.4
0.0 0.0 0.0 0.0 0.0 0.0 0.0 0.0 0.0 0.0 0.0 0.0 0.0 0.0 0.0 18.2 1.0 0.0 0.0 0.0 0.6 0.5 4.9 2.3 5.0 3.3 7.5 13.1 13.3 13.6 16.2 8.8 5.9 1.3 1.6 4.1 14.0 15.4 12.8 22.7 10.7 0.0 0.1 3.8 2.6 2.6 4.1
0.0 0.0 0.0 0.0 0.0 0.0 0.0 0.0 0.0 0.0 0.0 0.0 0.3 0.0 0.0 2.9 3.0 0.0 0.0 0.0 0.0 0.0 0.5 1.1 1.5 4.0 6.2 9.9 8.7 4.6 7.7 4.1 7.3 11.5 0.5 5.0 3.2 6.4 6.1 5.6 1.8 0.6 1.2 1.5 0.7 2.9 3.9

GFSGBSN_prec_kuchsnow_210.txt.gz
Snowfall_Accumulation
0.0 0.0 0.0 0.0 0.0 0.0 0.0 0.0 0.0 0.0 0.0 0.0 0.0 0.0 0.0 0.0 0.0 0.0 0.0 0.0 0.0 0.0 0.0 0.0 0.0 0.0 0.0 0.0 0.0 0.0 0.0 0.0 0.0 0.0 0.0 0.0 0.0 0.0 0.0 0.0 0.0 0.0 0.0 0.0 0.0 0.0 0.0
0.0 0.0 0.0 0.0 0.0 0.0 0.0 0.0 0.0 0.0 0.0 0.0 0.0 0.0 0.0 0.0 0.0 0.0 0.0 0.0 0.0 0.0 0.0 0.0 0.0 0.0 0.0 0.0 0.0 0.0 0.0 0.0 0.0 0.0 0.0 0.0 0.0 0.0 0.0 0.0 0.0 0.0 0.0 0.0 0.0 0.0 0.0
0.0 0.0 0.0 0.0 0.0 0.0 0.0 0.0 0.0 0.0 0.0 0.0 0.0 0.0 0.0 0.0 0.0 0.0 0.0 0.0 0.0 0.0 0.0 0.0 0.0 0.0 0.0 0.0 0.0 0.0 0.0 0.0 0.0 0.0 0.0 0.0 0.0 0.0 0.0 0.0 0.0 0.0 0.0 0.0 0.0 0.0 0.0
0.0 0.0 0.0 0.0 0.0 0.0 0.0 0.0 0.0 0.0 0.0 0.0 0.0 0.0 0.0 0.0 0.0 0.0 0.0 0.0 0.0 0.0 0.0 0.0 0.0 0.0 0.0 0.0 0.0 0.0 0.0 0.0 0.0 0.0 0.0 0.0 0.0 0.0 0.0 0.0 0.0 0.0 0.0 0.0 0.0 0.0 0.0
0.0 0.0 0.0 0.0 0.0 0.0 0.0 0.0 0.0 0.0 0.0 0.0 0.0 0.0 0.0 0.0 0.0 0.0 0.0 0.0 0.0 0.0 0.0 0.0 0.0 0.0 0.0 0.0 0.0 0.0 0.0 0.0 0.0 0.0 0.0 0.0 0.0 0.0 0.0 0.0 0.0 0.0 0.0 0.0 0.0 0.0 0.0
0.0 0.0 0.0 0.0 0.0 0.0 0.0 0.0 0.0 0.0 0.0 0.0 0.0 0.0 0.0 0.0 0.0 0.0 0.0 0.0 0.0 0.0 0.0 0.0 0.0 0.0 0.0 0.0 0.0 0.0 0.0 0.0 0.0 0.0 0.0 0.0 0.0 0.0 0.0 0.0 0.0 0.0 0.0 0.0 0.0 0.0 0.0
0.0 0.0 0.0 0.0 0.0 0.0 0.0 0.0 0.0 0.0 0.0 0.0 0.0 0.0 0.0 0.0 0.0 0.0 0.0 0.0 0.0 0.0 0.0 0.0 0.0 0.0 0.0 0.0 0.0 0.0 0.0 0.0 0.0 0.0 0.0 0.0 0.0 0.0 0.0 0.0 0.0 0.0 0.0 0.0 0.0 0.0 0.0
0.0 0.0 0.0 0.0 0.0 0.0 0.0 0.0 0.0 0.0 0.0 0.0 0.0 0.0 0.0 0.0 0.0 0.0 0.0 0.0 0.0 0.0 0.0 0.0 0.0 0.0 0.0 0.0 0.0 0.0 0.0 0.0 0.0 0.0 0.0 0.0 0.0 0.0 0.0 0.0 0.0 0.0 0.0 0.0 0.0 0.0 0.0
0.0 0.0 0.0 0.0 0.0 0.0 0.0 0.0 0.0 0.0 0.0 0.0 0.0 0.0 0.0 0.0 0.0 0.0 0.0 0.0 0.0 0.0 0.0 0.0 0.0 0.0 0.0 0.0 0.0 0.0 0.0 0.0 0.0 0.0 0.0 0.0 0.0 0.0 0.0 0.0 0.0 0.0 0.0 0.0 0.0 0.0 0.0
0.0 0.0 0.0 0.0 0.0 0.0 0.0 0.0 0.0 0.0 0.0 0.0 0.0 0.0 0.0 0.0 0.0 0.0 0.0 0.0 0.0 0.0 3.3 0.0 0.0 0.0 0.0 0.0 0.0 0.0 0.0 0.0 0.0 0.0 0.0 0.0 0.0 0.0 0.0 0.0 0.0 0.0 0.0 0.0 0.0 0.0 0.0
0.0 0.0 0.0 0.0 0.0 0.0 0.0 0.0 0.0 0.0 0.0 0.0 0.0 0.0 0.0 0.0 0.0 0.0 0.0 0.0 0.0 0.0 45.8 0.0 0.0 0.0 0.0 0.0 0.0 0.0 0.0 0.0 0.0 0.0 0.0 0.0 0.0 0.0 0.0 0.0 0.0 0.0 0.0 0.0 0.0 0.0 0.0
0.0 0.0 0.0 0.0 0.0 0.0 0.0 0.0 0.0 0.0 0.0 0.0 0.0 0.0 0.0 0.0 0.0 0.0 0.0 0.0 0.0 21.0 60.2 0.2 0.0 0.0 0.0 0.0 0.0 0.0 0.0 0.0 0.0 0.0 0.0 0.0 0.0 0.0 0.0 0.0 0.0 0.0 0.0 0.0 0.0 0.1 0.1
0.0 0.0 0.0 0.0 0.0 0.0 0.0 0.0 0.0 0.0 0.0 0.0 0.0 0.0 0.0 0.0 0.0 0.0 0.0 0.0 34.4 72.6 0.0 0.6 0.0 0.0 0.0 0.0 0.0 0.0 0.0 0.0 0.0 0.4 0.1 0.0 0.0 0.0 0.0 0.0 0.0 0.0 0.0 2.6 2.0 0.9 0.1
0.0 0.0 0.0 0.0 0.0 0.0 0.0 0.0 0.0 0.0 0.0 0.0 0.0 0.0 0.0 0.0 0.0 0.0 0.0 5.6 84.5 6.3 2.3 0.0 0.0 0.0 0.0 0.0 0.0 0.0 0.0 0.0 0.0 0.0 0.1 0.3 0.2 0.0 0.0 0.0 0.0 0.0 0.0 0.6 2.1 0.8 0.0
0.0 0.0 0.0 0.0 0.0 0.0 0.0 0.0 0.0 0.0 0.0 0.0 0.0 0.0 0.0 0.0 0.0 0.0 2.2 82.3 38.8 0.9 0.0 0.0 0.0 0.6 0.2 0.0 0.1 0.0 0.1 0.0 0.0 0.0 1.4 0.9 0.0 0.0 0.0 0.0 0.0 0.0 0.4 0.0 1.9 0.3 1.0
0.0 0.0 0.0 0.0 0.0 0.0 0.0 0.0 0.0 0.0 0.0 0.0 0.0 0.0 0.0 0.0 0.0 0.0 20.3 48.0 14.2 0.0 0.2 0.0 1.5 0.4 1.7 0.1 0.4 0.0 0.2 0.3 0.0 0.0 0.0 0.2 5.8 0.0 0.0 0.0 0.0 0.0 0.0 2.6 4.4 18.3 8.7
0.0 0.0 0.0 0.0 0.0 0.0 0.0 0.0 0.0 0.0 0.0 0.0 0.0 3.7 0.0 0.0 0.0 0.8 57.9 14.1 5.1 0.0 0.0 1.5 1.0 2.4 0.5 0.6 1.7 0.3 0.6 0.0 1.7 0.2 0.0 0.4 2.4 0.3 0.0 0.0 0.1 0.2 0.7 0.7 0.9 5.5 13.8
0.0 0.0 0.0 0.0 0.0 0.0 0.0 0.0 0.0 0.0 0.0 0.0 0.0 30.3 0.0 0.0 17.7 25.3 29.7 9.1 0.6 0.0 0.0 1.1 0.7 0.8 1.9 1.6 1.9 2.6 3.4 1.1 0.0 0.2 0.7 0.5 3.9 5.3 0.1 0.0 0.0 0.0 2.9 5.4 29.2 25.7 15.0
0.0 0.0 0.0 0.0 0.0 0.0 0.0 0.0 0.0 0.0 0.0 0.0 7.9 12.3 0.0 0.0 50.0 31.9 8.3 9.3 3.1 1.9 1.2 2.0 1.3 0.4 0.6 1.2 5.0 2.1 2.1 0.0 0.7 1.1 1.2 1.4 4.4 10.7 3.0 0.8 0.0 2.8 2.9 3.5 7.1 18.6 23.1
0.0 0.0 0.0 0.0 0.0 0.0 0.0 0.0 0.0 0.0 0.0 0.0 13.5 51.3 8.4 0.0 3.9 5.8 7.8 10.0 7.3 0.0 0.9 0.0 2.0 0.0 2.3 4.7 0.8 3.9 2.8 0.9 2.5 2.5 0.2 0.0 2.4 3.6 8.9 1.6 1.2 4.3 1.8 2.4 8.5 22.7 12.6
0.0 0.0 0.0 0.0 0.0 0.0 0.0 0.0 0.0 0.0 0.0 0.0 23.6 30.2 0.0 32.9 14.6 5.6 6.5 4.8 5.0 5.7 1.2 0.0 2.3 0.8 1.7 9.4 4.6 2.9 2.0 3.9 3.2 0.0 0.3 3.7 6.6 4.5 2.7 0.8 0.8 3.0 3.3 2.4 6.7 3.6 10.8
0.0 0.0 0.0 0.0 0.0 0.0 0.0 0.0 0.0 0.0 0.0 0.0 53.7 14.2 1.5 3.1 1.6 8.6 5.7 10.0 4.1 3.4 7.3 5.2 5.2 1.6 1.0 4.5 1.9 6.2 2.6 1.4 4.9 0.1 2.3 2.8 11.3 6.6 11.7 1.2 2.8 5.6 4.6 2.4 5.2 4.1 4.5
0.0 0.0 0.0 0.0 0.0 0.0 0.0 0.0 0.0 0.0 0.0 6.8 3.5 0.0 3.8 3.3 2.0 6.0 6.9 5.7 6.1 7.0 1.5 0.6 2.4 3.1 3.9 1.7 0.1 0.1 0.0 0.0 0.0 2.0 2.9 6.9 16.1 16.8 19.7 3.1 4.0 13.3 8.2 5.7 4.5 1.8 1.4
0.0 0.0 0.0 0.0 0.0 0.0 0.0 0.0 0.0 0.0 0.0 0.0 0.0 0.0 9.6 18.9 4.7 3.4 1.1 0.3 3.3 4.3 14.6 1.7 0.6 2.2 0.0 0.0 0.0 0.0 0.0 0.6 0.0 1.0 1.2 10.3 12.2 15.0 22.5 7.6 26.9 6.8 2.5 1.7 0.8 0.6 0.3
0.0 0.0 0.0 0.0 0.0 0.0 0.0 0.0 0.0 0.0 0.0 0.0 0.0 0.0 5.9 16.8 1.7 3.1 2.0 2.3 0.7 1.7 5.2 6.1 2.1 0.1 0.0 0.0 5.7 17.6 17.7 13.5 9.2 4.6 3.0 3.1 7.0 21.9 24.2 15.6 6.2 1.8 0.3 0.6 3.6 2.7 0.3
0.0 0.0 0.0 0.0 0.0 0.0 0.0 0.0 0.0 0.0 0.0 0.0 0.0 0.0 0.8 13.8 4.8 0.1 1.9 0.4 2.5 5.1 5.0 3.7 0.0 0.0 0.0 3.6 16.5 30.6 22.1 10.2 8.7 4.6 1.7 2.4 3.5 12.9 23.3 21.2 12.9 0.2 0.0 0.0 0.0 9.7 0.5
0.0 0.0 0.0 0.0 0.0 0.0 0.0 0.0 0.0 0.0 0.0 0.0 0.0 0.0 0.2 20.8 0.6 0.0 2.2 2.9 0.7 1.6 4.5 1.6 1.2 3.1 0.0 10.2 28.0 25.3 14.1 1.8 5.1 2.4 7.7 10.4 17.7 27.1 20.0 18.0 2.4 0.5 0.1 0.0 9.5 8.7 2.4
0.0 0.0 0.0 0.0 0.0 0.0 0.0 0.0 0.0 0.0 0.0 0.0 0.0 0.0 0.0 20.5 1.3 0.0 0.0 0.0 0.6 0.6 5.7 2.3 5.3 3.6 8.0 14.0 13.7 13.7 16.3 8.8 5.9 1.3 1.6 4.1 16.6 18.4 15.5 24.3 11.4 0.0 0.1 3.8 2.6 2.6 4.1
0.0 0.0 0.0 0.0 0.0 0.0 0.0 0.0 0.0 0.0 0.0 0.0 0.3 0.0 0.0 2.9 4.3 0.0 0.0 0.0 0.0 0.0 0.5 1.1 1.7 4.0 6.2 9.9 8.8 4.6 7.8 4.1 7.3 11.7 0.5 5.5 4.0 7.6 8.8 6.5 1.8 0.6 1.2 1.5 0.7 2.9 3.9

GFSGBSN_prec_kuchsnow_216.txt.gz
Snowfall_Accumulation
0.0 0.0 0.0 0.0 0.0 0.0 0.0 0.0 0.0 0.0 0.0 0.0 0.0 0.0 0.0 0.0 0.0 0.0 0.0 0.0 0.0 0.0 0.0 0.0 0.0 0.0 0.0 0.0 0.0 0.0 0.0 0.0 0.0 0.0 0.0 0.0 0.0 0.0 0.0 0.0 0.0 0.0 0.0 0.0 0.0 0.0 0.0
0.0 0.0 0.0 0.0 0.0 0.0 0.0 0.0 0.0 0.0 0.0 0.0 0.0 0.0 0.0 0.0 0.0 0.0 0.0 0.0 0.0 0.0 0.0 0.0 0.0 0.0 0.0 0.0 0.0 0.0 0.0 0.0 0.0 0.0 0.0 0.0 0.0 0.0 0.0 0.0 0.0 0.0 0.0 0.0 0.0 0.0 0.0
0.0 0.0 0.0 0.0 0.0 0.0 0.0 0.0 0.0 0.0 0.0 0.0 0.0 0.0 0.0 0.0 0.0 0.0 0.0 0.0 0.0 0.0 0.0 0.0 0.0 0.0 0.0 0.0 0.0 0.0 0.0 0.0 0.0 0.0 0.0 0.0 0.0 0.0 0.0 0.0 0.0 0.0 0.0 0.0 0.0 0.0 0.0
0.0 0.0 0.0 0.0 0.0 0.0 0.0 0.0 0.0 0.0 0.0 0.0 0.0 0.0 0.0 0.0 0.0 0.0 0.0 0.0 0.0 0.0 0.0 0.0 0.0 0.0 0.0 0.0 0.0 0.0 0.0 0.0 0.0 0.0 0.0 0.0 0.0 0.0 0.0 0.0 0.0 0.0 0.0 0.0 0.0 0.0 0.0
0.0 0.0 0.0 0.0 0.0 0.0 0.0 0.0 0.0 0.0 0.0 0.0 0.0 0.0 0.0 0.0 0.0 0.0 0.0 0.0 0.0 0.0 0.0 0.0 0.0 0.0 0.0 0.0 0.0 0.0 0.0 0.0 0.0 0.0 0.0 0.0 0.0 0.0 0.0 0.0 0.0 0.0 0.0 0.0 0.0 0.0 0.0
0.0 0.0 0.0 0.0 0.0 0.0 0.0 0.0 0.0 0.0 0.0 0.0 0.0 0.0 0.0 0.0 0.0 0.0 0.0 0.0 0.0 0.0 0.0 0.0 0.0 0.0 0.0 0.0 0.0 0.0 0.0 0.0 0.0 0.0 0.0 0.0 0.0 0.0 0.0 0.0 0.0 0.0 0.0 0.0 0.0 0.0 0.0
0.0 0.0 0.0 0.0 0.0 0.0 0.0 0.0 0.0 0.0 0.0 0.0 0.0 0.0 0.0 0.0 0.0 0.0 0.0 0.0 0.0 0.0 0.0 0.0 0.0 0.0 0.0 0.0 0.0 0.0 0.0 0.0 0.0 0.0 0.0 0.0 0.0 0.0 0.0 0.0 0.0 0.0 0.0 0.0 0.0 0.0 0.0
0.0 0.0 0.0 0.0 0.0 0.0 0.0 0.0 0.0 0.0 0.0 0.0 0.0 0.0 0.0 0.0 0.0 0.0 0.0 0.0 0.0 0.0 0.0 0.0 0.0 0.0 0.0 0.0 0.0 0.0 0.0 0.0 0.0 0.0 0.0 0.0 0.0 0.0 0.0 0.0 0.0 0.0 0.0 0.0 0.0 0.0 0.0
0.0 0.0 0.0 0.0 0.0 0.0 0.0 0.0 0.0 0.0 0.0 0.0 0.0 0.0 0.0 0.0 0.0 0.0 0.0 0.0 0.0 0.0 0.0 0.0 0.0 0.0 0.0 0.0 0.0 0.0 0.0 0.0 0.0 0.0 0.0 0.0 0.0 0.0 0.0 0.0 0.0 0.0 0.0 0.0 0.0 0.0 0.0
0.0 0.0 0.0 0.0 0.0 0.0 0.0 0.0 0.0 0.0 0.0 0.0 0.0 0.0 0.0 0.0 0.0 0.0 0.0 0.0 0.0 0.0 3.3 0.0 0.0 0.0 0.0 0.0 0.0 0.0 0.0 0.0 0.0 0.0 0.0 0.0 0.0 0.0 0.0 0.0 0.0 0.0 0.0 0.0 0.0 0.0 0.0
0.0 0.0 0.0 0.0 0.0 0.0 0.0 0.0 0.0 0.0 0.0 0.0 0.0 0.0 0.0 0.0 0.0 0.0 0.0 0.0 0.0 0.0 45.8 0.0 0.0 0.0 0.0 0.0 0.0 0.0 0.0 0.0 0.0 0.0 0.0 0.0 0.0 0.0 0.0 0.0 0.0 0.0 0.0 0.0 0.0 0.0 0.0
0.0 0.0 0.0 0.0 0.0 0.0 0.0 0.0 0.0 0.0 0.0 0.0 0.0 0.0 0.0 0.0 0.0 0.0 0.0 0.0 0.0 22.0 60.6 0.2 0.0 0.0 0.0 0.0 0.0 0.0 0.0 0.0 0.0 0.0 0.0 0.0 0.0 0.0 0.0 0.0 0.0 0.0 0.0 0.0 0.0 0.1 0.1
0.0 0.0 0.0 0.0 0.0 0.0 0.0 0.0 0.0 0.0 0.0 0.0 0.0 0.0 0.0 0.0 0.0 0.0 0.0 0.0 35.2 73.9 0.0 0.6 0.0 0.0 0.0 0.0 0.0 0.0 0.0 0.0 0.0 0.4 0.1 0.0 0.0 0.0 0.0 0.0 0.0 0.0 0.0 2.6 2.0 0.9 0.1
0.0 0.0 0.0 0.0 0.0 0.0 0.0 0.0 0.0 0.0 0.0 0.0 0.0 0.0 0.0 0.0 0.0 0.0 0.0 5.7 86.1 6.4 2.3 0.0 0.0 0.0 0.0 0.0 0.0 0.0 0.0 0.0 0.0 0.0 0.1 0.3 0.2 0.0 0.0 0.0 0.0 0.0 0.0 0.6 2.2 0.8 0.0
0.0 0.0 0.0 0.0 0.0 0.0 0.0 0.0 0.0 0.0 0.0 0.0 0.0 0.0 0.0 0.0 0.0 0.0 2.2 83.9 39.3 0.9 0.0 0.0 0.0 0.6 0.4 0.0 0.1 0.0 0.1 0.0 0.0 0.0 1.4 0.9 0.0 0.0 0.0 0.0 0.0 0.0 0.4 0.0 1.9 0.3 1.0
0.0 0.0 0.0 0.0 0.0 0.0 0.0 0.0 0.0 0.0 0.0 0.0 0.0 0.0 0.0 0.0 0.0 0.0 20.9 48.0 14.2 0.0 0.2 0.0 1.5 0.4 1.7 0.2 0.8 0.7 0.2 0.3 0.0 0.0 0.0 0.2 5.8 0.0 0.0 0.0 0.0 0.0 0.0 2.6 4.4 18.9 9.0
0.0 0.0 0.0 0.0 0.0 0.0 0.0 0.0 0.0 0.0 0.0 0.0 0.0 3.7 0.0 0.0 0.0 0.8 58.7 14.1 5.1 0.0 0.0 1.5 1.0 2.5 0.5 0.9 2.6 3.5 2.3 0.2 1.9 0.2 0.0 0.4 2.4 0.3 0.0 0.0 0.1 0.2 0.7 0.7 0.9 5.5 13.8
0.0 0.0 0.0 0.0 0.0 0.0 0.0 0.0 0.0 0.0 0.0 0.0 0.0 31.1 0.0 0.0 18.2 25.5 29.8 9.1 0.6 0.0 0.0 1.1 0.7 0.8 1.9 1.6 1.9 3.2 5.3 2.0 0.0 0.2 0.9 0.7 3.9 5.7 0.1 0.0 0.0 0.0 2.9 5.4 29.2 26.1 15.0
0.0 0.0 0.0 0.0 0.0 0.0 0.0 0.0 0.0 0.0 0.0 0.0 8.1 12.3 0.0 0.0 51.1 32.4 8.3 9.4 3.1 1.9 1.2 2.0 1.3 0.4 0.6 1.2 5.9 2.3 2.1 0.0 0.7 2.7 3.9 2.3 6.6 13.2 3.0 0.8 0.0 2.8 2.9 3.5 7.1 18.6 23.1
0.0 0.0 0.0 0.0 0.0 0.0 0.0 0.0 0.0 0.0 0.0 0.0 13.5 51.3 8.6 0.0 3.9 6.0 8.5 10.6 7.5 0.0 0.9 0.0 2.0 0.0 2.3 4.7 0.8 4.4 2.8 0.9 2.5 2.5 0.2 1.3 4.0 5.1 9.7 1.8 1.2 4.3 1.8 2.4 8.5 22.9 12.6
0.0 0.0 0.0 0.0 0.0 0.0 0.0 0.0 0.0 0.0 0.0 0.0 23.6 30.5 0.0 33.2 14.8 5.6 6.5 5.0 5.4 5.9 1.2 0.0 2.3 0.8 1.7 9.5 4.6 2.9 2.0 3.9 3.2 0.0 0.3 5.4 9.8 4.5 3.0 0.8 0.8 3.0 3.3 2.4 6.7 3.6 10.8
0.0 0.0 0.0 0.0 0.0 0.0 0.0 0.0 0.0 0.0 0.0 0.0 53.7 14.3 1.5 3.1 1.6 8.7 5.9 10.0 4.2 3.4 7.3 5.2 5.4 1.6 1.0 4.7 1.9 6.4 2.6 1.4 5.0 0.1 2.6 4.1 13.3 7.3 12.4 1.2 2.8 5.9 4.6 2.4 5.2 4.1 4.5
0.0 0.0 0.0 0.0 0.0 0.0 0.0 0.0 0.0 0.0 0.0 6.8 3.5 0.0 3.8 3.3 2.0 6.2 7.3 6.0 6.3 7.0 1.5 0.6 2.4 3.1 3.9 1.7 0.1 0.1 0.0 0.0 0.0 2.0 3.2 8.4 17.7 18.0 21.2 3.1 4.3 14.9 8.2 5.7 4.5 1.8 1.4
0.0 0.0 0.0 0.0 0.0 0.0 0.0 0.0 0.0 0.0 0.0 0.0 0.0 0.0 10.2 19.5 4.8 3.4 1.1 0.3 3.3 4.3 14.7 1.7 0.6 2.2 0.0 0.0 0.0 0.0 0.0 0.6 0.0 1.0 1.2 10.7 13.0 16.5 24.7 8.1 30.1 6.8 2.5 1.7 0.8 0.6 0.3
0.0 0.0 0.0 0.0 0.0 0.0 0.0 0.0 0.0 0.0 0.0 0.0 0.0 0.0 6.3 17.6 1.7 3.1 2.0 2.3 0.7 1.7 5.2 6.1 2.1 0.1 0.0 0.0 7.4 18.4 17.8 13.5 9.2 4.6 3.0 3.1 7.2 22.1 26.2 16.4 6.4 1.8 0.3 0.6 3.6 2.7 0.3
0.0 0.0 0.0 0.0 0.0 0.0 0.0 0.0 0.0 0.0 0.0 0.0 0.0 0.0 0.8 16.0 5.0 0.1 1.9 0.4 2.6 5.2 5.0 3.7 0.0 0.0 0.0 4.3 17.9 32.0 22.3 10.2 8.7 4.6 1.7 2.4 3.5 13.8 24.1 22.6 13.9 0.2 0.0 0.0 0.0 9.8 0.5
0.0 0.0 0.0 0.0 0.0 0.0 0.0 0.0 0.0 0.0 0.0 0.0 0.0 0.0 0.2 23.4 0.7 0.0 2.3 3.0 0.7 1.6 5.1 1.6 1.2 3.1 0.0 13.6 30.9 26.4 14.6 1.8 5.3 2.4 7.8 10.8 18.3 29.1 21.1 18.9 2.5 0.5 0.1 0.0 9.5 8.7 2.4
0.0 0.0 0.0 0.0 0.0 0.0 0.0 0.0 0.0 0.0 0.0 0.0 0.0 0.0 0.0 21.8 1.5 0.0 0.0 0.0 0.6 0.7 7.2 2.3 5.8 4.1 9.4 17.1 15.6 14.7 17.0 8.8 6.0 1.3 1.6 4.3 18.1 20.4 16.8 26.7 12.6 0.0 0.1 3.8 2.6 2.6 4.1
0.0 0.0 0.0 0.0 0.0 0.0 0.0 0.0 0.0 0.0 0.0 0.0 0.3 0.0 0.0 2.9 4.3 0.0 0.0 0.0 0.0 0.0 0.5 1.1 2.6 4.2 6.5 10.8 9.1 4.7 8.2 4.3 7.3 11.9 0.5 5.7 4.0 8.4 10.0 7.2 1.8 0.6 1.2 1.5 0.7 2.9 3.9

GFSGBSN_prec_kuchsnow_219.txt.gz
Snowfall_Accumulation
0.0 0.0 0.0 0.0 0.0 0.0 0.0 0.0 0.0 0.0 0.0 0.0 0.0 0.0 0.0 0.0 0.0 0.0 0.0 0.0 0.0 0.0 0.0 0.0 0.0 0.0 0.0 0.0 0.0 0.0 0.0 0.0 0.0 0.0 0.0 0.0 0.0 0.0 0.0 0.0 0.0 0.0 0.0 0.0 0.0 0.0 0.0
0.0 0.0 0.0 0.0 0.0 0.0 0.0 0.0 0.0 0.0 0.0 0.0 0.0 0.0 0.0 0.0 0.0 0.0 0.0 0.0 0.0 0.0 0.0 0.0 0.0 0.0 0.0 0.0 0.0 0.0 0.0 0.0 0.0 0.0 0.0 0.0 0.0 0.0 0.0 0.0 0.0 0.0 0.0 0.0 0.0 0.0 0.0
0.0 0.0 0.0 0.0 0.0 0.0 0.0 0.0 0.0 0.0 0.0 0.0 0.0 0.0 0.0 0.0 0.0 0.0 0.0 0.0 0.0 0.0 0.0 0.0 0.0 0.0 0.0 0.0 0.0 0.0 0.0 0.0 0.0 0.0 0.0 0.0 0.0 0.0 0.0 0.0 0.0 0.0 0.0 0.0 0.0 0.0 0.0
0.0 0.0 0.0 0.0 0.0 0.0 0.0 0.0 0.0 0.0 0.0 0.0 0.0 0.0 0.0 0.0 0.0 0.0 0.0 0.0 0.0 0.0 0.0 0.0 0.0 0.0 0.0 0.0 0.0 0.0 0.0 0.0 0.0 0.0 0.0 0.0 0.0 0.0 0.0 0.0 0.0 0.0 0.0 0.0 0.0 0.0 0.0
0.0 0.0 0.0 0.0 0.0 0.0 0.0 0.0 0.0 0.0 0.0 0.0 0.0 0.0 0.0 0.0 0.0 0.0 0.0 0.0 0.0 0.0 0.0 0.0 0.0 0.0 0.0 0.0 0.0 0.0 0.0 0.0 0.0 0.0 0.0 0.0 0.0 0.0 0.0 0.0 0.0 0.0 0.0 0.0 0.0 0.0 0.0
0.0 0.0 0.0 0.0 0.0 0.0 0.0 0.0 0.0 0.0 0.0 0.0 0.0 0.0 0.0 0.0 0.0 0.0 0.0 0.0 0.0 0.0 0.0 0.0 0.0 0.0 0.0 0.0 0.0 0.0 0.0 0.0 0.0 0.0 0.0 0.0 0.0 0.0 0.0 0.0 0.0 0.0 0.0 0.0 0.0 0.0 0.0
0.0 0.0 0.0 0.0 0.0 0.0 0.0 0.0 0.0 0.0 0.0 0.0 0.0 0.0 0.0 0.0 0.0 0.0 0.0 0.0 0.0 0.0 0.0 0.0 0.0 0.0 0.0 0.0 0.0 0.0 0.0 0.0 0.0 0.0 0.0 0.0 0.0 0.0 0.0 0.0 0.0 0.0 0.0 0.0 0.0 0.0 0.0
0.0 0.0 0.0 0.0 0.0 0.0 0.0 0.0 0.0 0.0 0.0 0.0 0.0 0.0 0.0 0.0 0.0 0.0 0.0 0.0 0.0 0.0 0.0 0.0 0.0 0.0 0.0 0.0 0.0 0.0 0.0 0.0 0.0 0.0 0.0 0.0 0.0 0.0 0.0 0.0 0.0 0.0 0.0 0.0 0.0 0.0 0.0
0.0 0.0 0.0 0.0 0.0 0.0 0.0 0.0 0.0 0.0 0.0 0.0 0.0 0.0 0.0 0.0 0.0 0.0 0.0 0.0 0.0 0.0 0.0 0.0 0.0 0.0 0.0 0.0 0.0 0.0 0.0 0.0 0.0 0.0 0.0 0.0 0.0 0.0 0.0 0.0 0.0 0.0 0.0 0.0 0.0 0.0 0.0
0.0 0.0 0.0 0.0 0.0 0.0 0.0 0.0 0.0 0.0 0.0 0.0 0.0 0.0 0.0 0.0 0.0 0.0 0.0 0.0 0.0 0.0 3.3 0.0 0.0 0.0 0.0 0.0 0.0 0.0 0.0 0.0 0.0 0.0 0.0 0.0 0.0 0.0 0.0 0.0 0.0 0.0 0.0 0.0 0.0 0.0 0.0
0.0 0.0 0.0 0.0 0.0 0.0 0.0 0.0 0.0 0.0 0.0 0.0 0.0 0.0 0.0 0.0 0.0 0.0 0.0 0.0 0.0 0.0 45.8 0.0 0.0 0.0 0.0 0.0 0.0 0.0 0.0 0.0 0.0 0.0 0.0 0.0 0.0 0.0 0.0 0.0 0.0 0.0 0.0 0.0 0.0 0.0 0.0
0.0 0.0 0.0 0.0 0.0 0.0 0.0 0.0 0.0 0.0 0.0 0.0 0.0 0.0 0.0 0.0 0.0 0.0 0.0 0.0 0.0 22.0 60.6 0.2 0.0 0.0 0.0 0.0 0.0 0.0 0.0 0.0 0.0 0.0 0.0 0.0 0.0 0.0 0.0 0.0 0.0 0.0 0.0 0.0 0.0 0.1 0.1
0.0 0.0 0.0 0.0 0.0 0.0 0.0 0.0 0.0 0.0 0.0 0.0 0.0 0.0 0.0 0.0 0.0 0.0 0.0 0.0 35.2 73.9 0.0 0.6 0.0 0.0 0.0 0.0 0.0 0.0 0.0 0.0 0.0 0.4 0.1 0.0 0.0 0.0 0.0 0.0 0.0 0.0 0.0 2.6 2.0 0.9 0.1
0.0 0.0 0.0 0.0 0.0 0.0 0.0 0.0 0.0 0.0 0.0 0.0 0.0 0.0 0.0 0.0 0.0 0.0 0.0 5.7 86.1 6.4 2.3 0.0 0.0 0.0 0.0 0.0 0.0 0.0 0.0 0.0 0.0 0.0 0.1 0.3 0.2 0.0 0.0 0.0 0.0 0.0 0.0 0.6 2.2 0.8 0.0
0.0 0.0 0.0 0.0 0.0 0.0 0.0 0.0 0.0 0.0 0.0 0.0 0.0 0.0 0.0 0.0 0.0 0.0 2.2 83.9 39.3 0.9 0.0 0.0 0.0 0.6 0.5 0.2 0.1 0.0 0.2 0.0 0.0 0.0 1.7 0.9 0.0 0.0 0.0 0.0 0.0 0.0 0.4 0.0 1.9 0.3 1.0
0.0 0.0 0.0 0.0 0.0 0.0 0.0 0.0 0.0 0.0 0.0 0.0 0.0 0.0 0.0 0.0 0.0 0.0 20.9 48.0 14.2 0.0 0.2 0.0 1.5 0.4 1.7 0.3 0.8 0.7 0.2 0.9 0.0 0.0 0.0 0.4 6.1 0.0 0.0 0.0 0.0 0.0 0.0 2.6 4.4 19.1 9.1
0.0 0.0 0.0 0.0 0.0 0.0 0.0 0.0 0.0 0.0 0.0 0.0 0.0 3.7 0.0 0.0 0.0 0.8 58.7 14.1 5.1 0.0 0.0 1.5 1.0 2.5 0.5 0.9 2.7 3.6 2.8 0.2 2.3 0.3 0.0 0.8 3.3 0.3 0.0 0.0 0.1 0.2 0.7 0.7 0.9 5.5 13.9
0.0 0.0 0.0 0.0 0.0 0.0 0.0 0.0 0.0 0.0 0.0 0.0 0.0 31.1 0.0 0.0 18.5 25.5 29.8 9.1 0.6 0.0 0.0 1.1 0.7 0.8 1.9 1.6 1.9 3.3 5.3 2.0 0.0 0.4 1.7 1.3 4.9 6.3 0.1 0.0 0.0 0.0 2.9 5.4 29.2 26.1 15.0
0.0 0.0 0.0 0.0 0.0 0.0 0.0 0.0 0.0 0.0 0.0 0.0 8.1 12.3 0.0 0.0 52.5 32.6 8.3 9.4 3.1 1.9 1.2 2.0 1.3 0.4 0.6 1.2 5.9 2.3 2.1 0.0 0.7 2.7 4.6 2.7 8.4 13.2 3.0 0.8 0.0 2.8 2.9 3.5 7.1 18.6 23.1
0.0 0.0 0.0 0.0 0.0 0.0 0.0 0.0 0.0 0.0 0.0 0.0 13.5 51.3 8.6 0.0 4.0 6.0 8.5 10.6 7.5 0.0 0.9 0.0 2.0 0.0 2.3 4.7 0.8 4.4 2.8 0.9 2.5 2.5 0.2 1.3 4.6 6.1 10.8 2.3 1.7 4.3 1.8 2.4 8.6 23.9 14.0
0.0 0.0 0.0 0.0 0.0 0.0 0.0 0.0 0.0 0.0 0.0 0.0 23.6 30.5 0.0 33.2 14.8 5.6 6.5 5.0 5.4 5.9 1.2 0.0 2.3 0.8 1.7 9.5 4.6 2.9 2.0 3.9 3.2 0.0 0.3 5.8 10.5 4.5 3.0 0.8 0.8 3.1 3.3 2.4 6.8 3.8 11.2
0.0 0.0 0.0 0.0 0.0 0.0 0.0 0.0 0.0 0.0 0.0 0.0 53.7 14.3 1.5 3.1 1.6 8.9 6.1 10.2 4.2 3.4 7.4 5.2 5.6 1.6 1.1 4.8 1.9 6.4 2.6 1.4 5.0 0.1 2.8 4.3 13.7 7.3 12.8 1.2 2.8 6.0 4.6 2.4 5.2 4.1 4.5
0.0 0.0 0.0 0.0 0.0 0.0 0.0 0.0 0.0 0.0 0.0 6.8 3.5 0.0 4.1 3.3 2.0 6.2 7.3 6.0 6.3 7.0 1.5 0.6 2.4 3.3 3.9 1.7 0.1 0.1 0.0 0.0 0.0 2.2 3.5 9.3 18.6 18.4 21.6 3.1 4.3 15.4 8.2 5.7 4.5 1.8 1.4
0.0 0.0 0.0 0.0 0.0 0.0 0.0 0.0 0.0 0.0 0.0 0.0 0.0 0.0 10.7 19.9 4.8 3.4 1.1 0.3 3.3 4.3 14.9 1.7 0.6 2.4 0.0 0.0 0.0 0.0 0.0 0.6 0.0 1.0 1.2 11.0 13.2 16.9 24.9 8.1 30.7 6.8 2.5 1.7 0.8 0.6 0.3
0.0 0.0 0.0 0.0 0.0 0.0 0.0 0.0 0.0 0.0 0.0 0.0 0.0 0.0 6.9 18.5 1.7 3.1 2.0 2.3 0.7 1.7 5.2 6.1 2.1 0.1 0.0 0.0 8.1 18.9 17.8 13.5 9.2 4.6 3.0 3.1 7.2 22.1 26.3 16.4 6.4 1.8 0.3 0.6 3.6 2.7 0.3
0.0 0.0 0.0 0.0 0.0 0.0 0.0 0.0 0.0 0.0 0.0 0.0 0.0 0.0 0.8 17.7 5.5 0.1 2.0 0.4 2.6 5.2 5.0 3.7 0.0 0.0 0.0 4.3 17.9 32.5 22.5 10.2 8.7 4.6 1.7 2.4 3.5 13.8 24.1 23.0 14.0 0.2 0.0 0.0 0.0 9.9 0.5
0.0 0.0 0.0 0.0 0.0 0.0 0.0 0.0 0.0 0.0 0.0 0.0 0.0 0.0 0.2 23.8 0.7 0.0 2.3 3.0 0.7 1.6 5.2 1.6 1.2 3.1 0.0 14.7 32.3 27.0 14.7 1.8 5.3 2.4 7.8 10.8 18.5 29.9 21.1 19.8 2.7 0.5 0.1 0.0 9.5 8.8 2.4
0.0 0.0 0.0 0.0 0.0 0.0 0.0 0.0 0.0 0.0 0.0 0.0 0.0 0.0 0.0 21.8 1.5 0.0 0.0 0.0 0.6 0.7 7.4 2.3 6.3 4.1 9.4 17.8 16.2 14.7 17.1 8.8 6.0 1.3 1.6 4.3 18.1 20.4 16.8 27.6 13.4 0.0 0.1 3.8 2.6 2.6 4.1
0.0 0.0 0.0 0.0 0.0 0.0 0.0 0.0 0.0 0.0 0.0 0.0 0.3 0.0 0.0 2.9 4.3 0.0 0.0 0.0 0.0 0.0 0.5 1.2 2.6 4.4 6.9 11.8 9.8 5.4 8.7 4.3 7.3 11.9 0.5 5.7 4.0 8.4 10.4 7.2 1.8 0.6 1.2 1.5 0.7 2.9 3.9

GFSGBSN_prec_kuchsnow_222.txt.gz
Snowfall_Accumulation
0.0 0.0 0.0 0.0 0.0 0.0 0.0 0.0 0.0 0.0 0.0 0.0 0.0 0.0 0.0 0.0 0.0 0.0 0.0 0.0 0.0 0.0 0.0 0.0 0.0 0.0 0.0 0.0 0.0 0.0 0.0 0.0 0.0 0.0 0.0 0.0 0.0 0.0 0.0 0.0 0.0 0.0 0.0 0.0 0.0 0.0 0.0
0.0 0.0 0.0 0.0 0.0 0.0 0.0 0.0 0.0 0.0 0.0 0.0 0.0 0.0 0.0 0.0 0.0 0.0 0.0 0.0 0.0 0.0 0.0 0.0 0.0 0.0 0.0 0.0 0.0 0.0 0.0 0.0 0.0 0.0 0.0 0.0 0.0 0.0 0.0 0.0 0.0 0.0 0.0 0.0 0.0 0.0 0.0
0.0 0.0 0.0 0.0 0.0 0.0 0.0 0.0 0.0 0.0 0.0 0.0 0.0 0.0 0.0 0.0 0.0 0.0 0.0 0.0 0.0 0.0 0.0 0.0 0.0 0.0 0.0 0.0 0.0 0.0 0.0 0.0 0.0 0.0 0.0 0.0 0.0 0.0 0.0 0.0 0.0 0.0 0.0 0.0 0.0 0.0 0.0
0.0 0.0 0.0 0.0 0.0 0.0 0.0 0.0 0.0 0.0 0.0 0.0 0.0 0.0 0.0 0.0 0.0 0.0 0.0 0.0 0.0 0.0 0.0 0.0 0.0 0.0 0.0 0.0 0.0 0.0 0.0 0.0 0.0 0.0 0.0 0.0 0.0 0.0 0.0 0.0 0.0 0.0 0.0 0.0 0.0 0.0 0.0
0.0 0.0 0.0 0.0 0.0 0.0 0.0 0.0 0.0 0.0 0.0 0.0 0.0 0.0 0.0 0.0 0.0 0.0 0.0 0.0 0.0 0.0 0.0 0.0 0.0 0.0 0.0 0.0 0.0 0.0 0.0 0.0 0.0 0.0 0.0 0.0 0.0 0.0 0.0 0.0 0.0 0.0 0.0 0.0 0.0 0.0 0.0
0.0 0.0 0.0 0.0 0.0 0.0 0.0 0.0 0.0 0.0 0.0 0.0 0.0 0.0 0.0 0.0 0.0 0.0 0.0 0.0 0.0 0.0 0.0 0.0 0.0 0.0 0.0 0.0 0.0 0.0 0.0 0.0 0.0 0.0 0.0 0.0 0.0 0.0 0.0 0.0 0.0 0.0 0.0 0.0 0.0 0.0 0.0
0.0 0.0 0.0 0.0 0.0 0.0 0.0 0.0 0.0 0.0 0.0 0.0 0.0 0.0 0.0 0.0 0.0 0.0 0.0 0.0 0.0 0.0 0.0 0.0 0.0 0.0 0.0 0.0 0.0 0.0 0.0 0.0 0.0 0.0 0.0 0.0 0.0 0.0 0.0 0.0 0.0 0.0 0.0 0.0 0.0 0.0 0.0
0.0 0.0 0.0 0.0 0.0 0.0 0.0 0.0 0.0 0.0 0.0 0.0 0.0 0.0 0.0 0.0 0.0 0.0 0.0 0.0 0.0 0.0 0.0 0.0 0.0 0.0 0.0 0.0 0.0 0.0 0.0 0.0 0.0 0.0 0.0 0.0 0.0 0.0 0.0 0.0 0.0 0.0 0.0 0.0 0.0 0.0 0.0
0.0 0.0 0.0 0.0 0.0 0.0 0.0 0.0 0.0 0.0 0.0 0.0 0.0 0.0 0.0 0.0 0.0 0.0 0.0 0.0 0.0 0.0 0.0 0.0 0.0 0.0 0.0 0.0 0.0 0.0 0.0 0.0 0.0 0.0 0.0 0.0 0.0 0.0 0.0 0.0 0.0 0.0 0.0 0.0 0.0 0.0 0.0
0.0 0.0 0.0 0.0 0.0 0.0 0.0 0.0 0.0 0.0 0.0 0.0 0.0 0.0 0.0 0.0 0.0 0.0 0.0 0.0 0.0 0.0 3.3 0.0 0.0 0.0 0.0 0.0 0.0 0.0 0.0 0.0 0.0 0.0 0.0 0.0 0.0 0.0 0.0 0.0 0.0 0.0 0.0 0.0 0.0 0.0 0.0
0.0 0.0 0.0 0.0 0.0 0.0 0.0 0.0 0.0 0.0 0.0 0.0 0.0 0.0 0.0 0.0 0.0 0.0 0.0 0.0 0.0 0.0 45.8 0.0 0.0 0.0 0.0 0.0 0.0 0.0 0.0 0.0 0.0 0.0 0.0 0.0 0.0 0.0 0.0 0.0 0.0 0.0 0.0 0.0 0.0 0.0 0.0
0.0 0.0 0.0 0.0 0.0 0.0 0.0 0.0 0.0 0.0 0.0 0.0 0.0 0.0 0.0 0.0 0.0 0.0 0.0 0.0 0.0 22.0 60.6 0.2 0.0 0.0 0.0 0.0 0.0 0.0 0.0 0.0 0.0 0.0 0.0 0.0 0.0 0.0 0.0 0.0 0.0 0.0 0.0 0.0 0.0 0.1 0.1
0.0 0.0 0.0 0.0 0.0 0.0 0.0 0.0 0.0 0.0 0.0 0.0 0.0 0.0 0.0 0.0 0.0 0.0 0.0 0.0 35.2 73.9 0.0 0.6 0.0 0.0 0.0 0.0 0.0 0.0 0.0 0.0 0.0 0.4 0.1 0.0 0.0 0.0 0.0 0.0 0.0 0.0 0.0 2.7 2.0 0.9 0.1
0.0 0.0 0.0 0.0 0.0 0.0 0.0 0.0 0.0 0.0 0.0 0.0 0.0 0.0 0.0 0.0 0.0 0.0 0.0 5.7 86.1 6.4 2.3 0.0 0.0 0.0 0.1 0.0 0.0 0.0 0.0 0.0 0.0 0.0 0.1 0.4 0.2 0.0 0.0 0.0 0.0 0.0 0.0 0.6 2.3 0.8 0.0
0.0 0.0 0.0 0.0 0.0 0.0 0.0 0.0 0.0 0.0 0.0 0.0 0.0 0.0 0.0 0.0 0.0 0.0 2.2 83.9 39.3 0.9 0.0 0.0 0.0 0.6 0.8 0.2 0.1 0.0 0.5 0.4 0.1 0.0 2.1 1.4 0.0 0.0 0.0 0.0 0.0 0.0 0.4 0.0 1.9 0.3 1.1
0.0 0.0 0.0 0.0 0.0 0.0 0.0 0.0 0.0 0.0 0.0 0.0 0.0 0.0 0.0 0.0 0.0 0.0 20.9 48.0 14.2 0.0 0.2 0.0 1.5 0.4 1.7 0.3 0.8 0.7 0.4 1.3 0.5 0.1 0.0 0.9 6.1 0.0 0.0 0.0 0.0 0.0 0.0 2.6 4.4 19.8 10.0
0.0 0.0 0.0 0.0 0.0 0.0 0.0 0.0 0.0 0.0 0.0 0.0 0.0 3.7 0.0 0.0 0.0 0.8 58.7 14.1 5.1 0.0 0.0 1.5 1.0 2.5 0.5 0.9 2.7 3.6 2.8 0.2 2.3 0.3 0.0 1.0 3.9 0.3 0.0 0.0 0.1 0.2 0.7 0.7 0.9 5.5 13.9
0.0 0.0 0.0 0.0 0.0 0.0 0.0 0.0 0.0 0.0 0.0 0.0 0.0 31.1 0.0 0.0 18.5 25.5 29.8 9.1 0.6 0.0 0.0 1.1 0.7 0.8 1.9 1.6 1.9 3.3 5.3 2.0 0.0 0.4 2.2 1.8 5.3 6.3 0.1 0.0 0.0 0.0 2.9 5.4 30.7 26.9 15.7
0.0 0.0 0.0 0.0 0.0 0.0 0.0 0.0 0.0 0.0 0.0 0.0 8.1 12.3 0.0 0.0 52.5 32.6 8.3 9.4 3.1 1.9 1.2 2.0 1.3 0.4 0.6 1.2 5.9 2.3 2.1 0.0 0.7 2.7 4.6 2.7 8.4 13.2 3.0 0.8 0.0 3.6 3.3 4.0 7.7 19.7 24.3
0.0 0.0 0.0 0.0 0.0 0.0 0.0 0.0 0.0 0.0 0.0 0.0 13.5 51.3 8.6 0.0 4.0 6.1 8.5 10.6 7.5 0.0 0.9 0.0 2.0 0.0 2.3 4.7 0.8 4.4 2.8 0.9 2.5 2.5 0.2 1.3 4.6 6.1 10.8 2.3 1.7 4.3 2.1 2.7 9.7 25.6 15.1
0.0 0.0 0.0 0.0 0.0 0.0 0.0 0.0 0.0 0.0 0.0 0.0 23.6 30.5 0.0 33.2 14.8 5.6 6.5 5.0 5.4 5.9 1.2 0.0 2.3 0.8 1.7 9.5 4.6 2.9 2.0 3.9 3.2 0.0 0.3 5.9 10.8 4.5 3.0 0.8 0.8 3.1 3.3 2.4 6.8 3.8 12.0
0.0 0.0 0.0 0.0 0.0 0.0 0.0 0.0 0.0 0.0 0.0 0.0 53.7 14.3 1.5 3.1 1.6 8.9 6.1 10.2 4.2 3.4 7.4 5.2 5.6 1.6 1.1 4.8 1.9 6.4 2.7 1.4 5.1 0.1 3.0 4.7 13.7 7.3 12.8 1.2 2.8 6.0 4.6 2.4 5.2 4.1 4.5
0.0 0.0 0.0 0.0 0.0 0.0 0.0 0.0 0.0 0.0 0.0 6.8 3.5 0.0 4.1 3.3 2.0 6.2 7.3 6.0 6.3 7.0 1.5 0.6 2.4 3.6 3.9 1.8 0.1 0.1 0.0 0.0 0.0 2.2 3.5 9.3 18.6 18.4 21.6 3.1 4.4 15.8 8.2 5.7 4.5 1.8 1.4
0.0 0.0 0.0 0.0 0.0 0.0 0.0 0.0 0.0 0.0 0.0 0.0 0.0 0.0 11.0 19.9 4.8 3.4 1.1 0.3 3.3 4.3 14.9 1.7 0.6 2.4 0.0 0.0 0.0 0.0 0.0 0.6 0.0 1.0 1.2 11.0 13.2 16.9 24.9 8.1 31.3 6.8 2.5 1.7 0.8 0.6 0.3
0.0 0.0 0.0 0.0 0.0 0.0 0.0 0.0 0.0 0.0 0.0 0.0 0.0 0.0 7.6 19.1 1.7 3.1 2.0 2.3 0.7 1.7 5.2 6.1 2.1 0.1 0.0 0.0 8.1 18.9 17.8 13.5 9.2 4.6 3.0 3.1 7.2 22.2 26.5 16.4 6.4 1.8 0.3 0.6 3.6 2.7 0.3
0.0 0.0 0.0 0.0 0.0 0.0 0.0 0.0 0.0 0.0 0.0 0.0 0.0 0.0 0.8 19.2 6.0 0.1 2.0 0.4 2.6 5.2 5.0 3.7 0.0 0.0 0.0 4.3 17.9 33.1 22.5 10.2 8.7 4.6 1.7 2.4 3.5 13.8 24.6 23.7 14.0 0.2 0.0 0.0 0.0 9.9 0.5
0.0 0.0 0.0 0.0 0.0 0.0 0.0 0.0 0.0 0.0 0.0 0.0 0.0 0.0 0.2 24.0 0.7 0.0 2.3 3.0 0.7 1.6 5.3 1.6 1.2 3.1 0.0 14.8 32.9 27.4 14.9 1.8 5.3 2.4 7.8 10.8 18.5 30.1 21.1 20.1 2.7 0.5 0.1 0.0 9.5 8.8 2.4
0.0 0.0 0.0 0.0 0.0 0.0 0.0 0.0 0.0 0.0 0.0 0.0 0.0 0.0 0.0 21.8 1.5 0.0 0.0 0.0 0.6 0.7 7.4 2.3 6.4 4.1 9.4 18.3 16.4 14.7 17.1 8.8 6.0 1.3 1.6 4.3 18.1 20.4 16.8 27.8 13.6 0.0 0.1 3.8 2.6 2.6 4.1
0.0 0.0 0.0 0.0 0.0 0.0 0.0 0.0 0.0 0.0 0.0 0.0 0.3 0.0 0.0 2.9 4.3 0.0 0.0 0.0 0.0 0.0 0.5 1.2 2.7 4.4 7.1 12.6 10.3 6.1 9.2 4.6 7.6 12.3 0.5 5.7 4.0 8.4 10.4 7.2 1.8 0.6 1.2 1.5 0.7 2.9 3.9

GFSGBSN_prec_kuchsnow_225.txt.gz
Snowfall_Accumulation
0.0 0.0 0.0 0.0 0.0 0.0 0.0 0.0 0.0 0.0 0.0 0.0 0.0 0.0 0.0 0.0 0.0 0.0 0.0 0.0 0.0 0.0 0.0 0.0 0.0 0.0 0.0 0.0 0.0 0.0 0.0 0.0 0.0 0.0 0.0 0.0 0.0 0.0 0.0 0.0 0.0 0.0 0.0 0.0 0.0 0.0 0.0
0.0 0.0 0.0 0.0 0.0 0.0 0.0 0.0 0.0 0.0 0.0 0.0 0.0 0.0 0.0 0.0 0.0 0.0 0.0 0.0 0.0 0.0 0.0 0.0 0.0 0.0 0.0 0.0 0.0 0.0 0.0 0.0 0.0 0.0 0.0 0.0 0.0 0.0 0.0 0.0 0.0 0.0 0.0 0.0 0.0 0.0 0.0
0.0 0.0 0.0 0.0 0.0 0.0 0.0 0.0 0.0 0.0 0.0 0.0 0.0 0.0 0.0 0.0 0.0 0.0 0.0 0.0 0.0 0.0 0.0 0.0 0.0 0.0 0.0 0.0 0.0 0.0 0.0 0.0 0.0 0.0 0.0 0.0 0.0 0.0 0.0 0.0 0.0 0.0 0.0 0.0 0.0 0.0 0.0
0.0 0.0 0.0 0.0 0.0 0.0 0.0 0.0 0.0 0.0 0.0 0.0 0.0 0.0 0.0 0.0 0.0 0.0 0.0 0.0 0.0 0.0 0.0 0.0 0.0 0.0 0.0 0.0 0.0 0.0 0.0 0.0 0.0 0.0 0.0 0.0 0.0 0.0 0.0 0.0 0.0 0.0 0.0 0.0 0.0 0.0 0.0
0.0 0.0 0.0 0.0 0.0 0.0 0.0 0.0 0.0 0.0 0.0 0.0 0.0 0.0 0.0 0.0 0.0 0.0 0.0 0.0 0.0 0.0 0.0 0.0 0.0 0.0 0.0 0.0 0.0 0.0 0.0 0.0 0.0 0.0 0.0 0.0 0.0 0.0 0.0 0.0 0.0 0.0 0.0 0.0 0.0 0.0 0.0
0.0 0.0 0.0 0.0 0.0 0.0 0.0 0.0 0.0 0.0 0.0 0.0 0.0 0.0 0.0 0.0 0.0 0.0 0.0 0.0 0.0 0.0 0.0 0.0 0.0 0.0 0.0 0.0 0.0 0.0 0.0 0.0 0.0 0.0 0.0 0.0 0.0 0.0 0.0 0.0 0.0 0.0 0.0 0.0 0.0 0.0 0.0
0.0 0.0 0.0 0.0 0.0 0.0 0.0 0.0 0.0 0.0 0.0 0.0 0.0 0.0 0.0 0.0 0.0 0.0 0.0 0.0 0.0 0.0 0.0 0.0 0.0 0.0 0.0 0.0 0.0 0.0 0.0 0.0 0.0 0.0 0.0 0.0 0.0 0.0 0.0 0.0 0.0 0.0 0.0 0.0 0.0 0.0 0.0
0.0 0.0 0.0 0.0 0.0 0.0 0.0 0.0 0.0 0.0 0.0 0.0 0.0 0.0 0.0 0.0 0.0 0.0 0.0 0.0 0.0 0.0 0.0 0.0 0.0 0.0 0.0 0.0 0.0 0.0 0.0 0.0 0.0 0.0 0.0 0.0 0.0 0.0 0.0 0.0 0.0 0.0 0.0 0.0 0.0 0.0 0.0
0.0 0.0 0.0 0.0 0.0 0.0 0.0 0.0 0.0 0.0 0.0 0.0 0.0 0.0 0.0 0.0 0.0 0.0 0.0 0.0 0.0 0.0 0.0 0.0 0.0 0.0 0.0 0.0 0.0 0.0 0.0 0.0 0.0 0.0 0.0 0.0 0.0 0.0 0.0 0.0 0.0 0.0 0.0 0.0 0.0 0.0 0.0
0.0 0.0 0.0 0.0 0.0 0.0 0.0 0.0 0.0 0.0 0.0 0.0 0.0 0.0 0.0 0.0 0.0 0.0 0.0 0.0 0.0 0.0 3.3 0.0 0.0 0.0 0.0 0.0 0.0 0.0 0.0 0.0 0.0 0.0 0.0 0.0 0.0 0.0 0.0 0.0 0.0 0.0 0.0 0.0 0.0 0.0 0.0
0.0 0.0 0.0 0.0 0.0 0.0 0.0 0.0 0.0 0.0 0.0 0.0 0.0 0.0 0.0 0.0 0.0 0.0 0.0 0.0 0.0 0.0 45.8 0.0 0.0 0.0 0.0 0.0 0.0 0.0 0.0 0.0 0.0 0.0 0.0 0.0 0.0 0.0 0.0 0.0 0.0 0.0 0.0 0.0 0.0 0.0 0.0
0.0 0.0 0.0 0.0 0.0 0.0 0.0 0.0 0.0 0.0 0.0 0.0 0.0 0.0 0.0 0.0 0.0 0.0 0.0 0.0 0.0 22.0 60.6 0.3 0.0 0.0 0.0 0.0 0.0 0.0 0.0 0.0 0.0 0.0 0.0 0.0 0.0 0.0 0.0 0.0 0.0 0.0 0.0 0.0 0.0 0.1 0.1
0.0 0.0 0.0 0.0 0.0 0.0 0.0 0.0 0.0 0.0 0.0 0.0 0.0 0.0 0.0 0.0 0.0 0.0 0.0 0.0 35.2 73.9 0.0 0.6 0.0 0.0 0.0 0.0 0.0 0.0 0.0 0.0 0.0 0.4 0.2 0.0 0.0 0.0 0.0 0.0 0.0 0.0 0.0 2.8 2.1 1.0 0.1
0.0 0.0 0.0 0.0 0.0 0.0 0.0 0.0 0.0 0.0 0.0 0.0 0.0 0.0 0.0 0.0 0.0 0.0 0.0 5.7 86.1 6.4 2.3 0.0 0.0 0.0 0.1 0.0 0.0 0.0 0.0 0.0 0.0 0.0 0.1 0.4 0.2 0.0 0.0 0.0 0.0 0.0 0.0 0.7 2.6 0.8 0.0
0.0 0.0 0.0 0.0 0.0 0.0 0.0 0.0 0.0 0.0 0.0 0.0 0.0 0.0 0.0 0.0 0.0 0.0 2.2 83.9 39.3 0.9 0.0 0.0 0.0 0.6 0.8 0.2 0.1 0.0 1.0 1.1 0.7 0.0 2.1 1.9 0.0 0.0 0.0 0.0 0.0 0.0 0.4 0.0 1.9 0.3 1.1
0.0 0.0 0.0 0.0 0.0 0.0 0.0 0.0 0.0 0.0 0.0 0.0 0.0 0.0 0.0 0.0 0.0 0.0 20.9 48.0 14.2 0.0 0.2 0.0 1.5 0.4 1.7 0.3 0.8 0.7 0.4 1.6 1.3 0.1 0.0 1.3 6.1 0.0 0.0 0.0 0.0 0.0 0.0 2.6 4.4 21.6 11.6
0.0 0.0 0.0 0.0 0.0 0.0 0.0 0.0 0.0 0.0 0.0 0.0 0.0 3.7 0.0 0.0 0.0 0.8 58.7 14.1 5.1 0.0 0.0 1.5 1.0 2.5 0.5 0.9 2.7 3.6 2.8 0.2 2.3 0.3 0.0 1.0 3.9 0.3 0.0 0.0 0.1 0.2 0.7 0.7 0.9 6.0 14.4
0.0 0.0 0.0 0.0 0.0 0.0 0.0 0.0 0.0 0.0 0.0 0.0 0.0 31.1 0.0 0.0 18.5 25.5 29.8 9.1 0.6 0.0 0.0 1.1 0.7 0.8 1.9 1.6 1.9 3.3 5.3 2.0 0.0 0.4 2.2 1.8 5.3 6.3 0.1 0.0 0.0 0.1 3.2 6.2 32.6 28.5 16.3
0.0 0.0 0.0 0.0 0.0 0.0 0.0 0.0 0.0 0.0 0.0 0.0 8.1 12.3 0.0 0.0 52.5 32.6 8.3 9.4 3.1 1.9 1.2 2.0 1.3 0.4 0.6 1.2 5.9 2.3 2.1 0.0 0.7 2.7 4.6 2.7 8.4 13.2 3.0 0.8 0.0 4.1 4.7 5.1 8.8 21.0 24.3
0.0 0.0 0.0 0.0 0.0 0.0 0.0 0.0 0.0 0.0 0.0 0.0 13.5 51.3 8.6 0.0 4.0 6.1 8.5 10.6 7.5 0.0 0.9 0.0 2.0 0.0 2.3 4.7 0.8 4.4 2.8 0.9 2.5 2.5 0.2 1.3 4.6 6.1 10.8 2.3 1.7 4.4 2.1 3.2 11.1 26.6 16.2
0.0 0.0 0.0 0.0 0.0 0.0 0.0 0.0 0.0 0.0 0.0 0.0 23.6 30.5 0.0 33.2 14.8 5.6 6.5 5.0 5.4 5.9 1.2 0.0 2.3 0.8 1.8 9.6 4.6 2.9 2.0 3.9 3.2 0.0 0.3 6.0 10.8 4.5 3.0 0.8 0.8 3.1 3.3 2.4 6.8 3.8 12.6
0.0 0.0 0.0 0.0 0.0 0.0 0.0 0.0 0.0 0.0 0.0 0.0 53.7 14.3 1.5 3.1 1.6 8.9 6.1 10.2 4.2 3.4 7.4 5.2 5.6 1.6 1.1 4.9 1.9 6.6 2.7 1.4 5.1 0.1 3.0 4.7 13.7 7.3 13.0 1.2 2.8 6.0 4.6 2.4 5.2 4.1 4.5
0.0 0.0 0.0 0.0 0.0 0.0 0.0 0.0 0.0 0.0 0.0 6.8 3.5 0.0 4.1 3.3 2.0 6.2 7.3 6.0 6.3 7.0 1.5 0.6 2.4 3.6 3.9 1.8 0.1 0.1 0.0 0.0 0.0 2.2 3.5 9.3 18.6 18.6 21.7 3.1 4.4 16.2 8.2 5.7 4.5 1.8 1.4
0.0 0.0 0.0 0.0 0.0 0.0 0.0 0.0 0.0 0.0 0.0 0.0 0.0 0.0 11.1 19.9 4.8 3.4 1.1 0.3 3.3 4.3 14.9 1.7 0.6 2.4 0.0 0.0 0.0 0.0 0.0 0.6 0.0 1.0 1.2 11.0 13.2 16.9 24.9 8.1 31.8 6.8 2.5 1.7 0.8 0.6 0.3
0.0 0.0 0.0 0.0 0.0 0.0 0.0 0.0 0.0 0.0 0.0 0.0 0.0 0.0 8.0 19.9 1.7 3.1 2.0 2.3 0.7 1.7 5.2 6.1 2.1 0.1 0.0 0.0 8.1 18.9 17.8 13.5 9.2 4.6 3.0 3.1 7.2 22.4 26.7 16.4 6.4 1.8 0.3 0.6 3.6 2.7 0.3
0.0 0.0 0.0 0.0 0.0 0.0 0.0 0.0 0.0 0.0 0.0 0.0 0.0 0.0 0.8 19.7 6.0 0.1 2.0 0.4 2.6 5.2 5.0 3.7 0.0 0.0 0.0 4.3 18.3 33.6 22.5 10.2 8.7 4.6 1.7 2.4 3.5 13.8 24.9 24.0 14.0 0.2 0.0 0.0 0.0 9.9 0.5
0.0 0.0 0.0 0.0 0.0 0.0 0.0 0.0 0.0 0.0 0.0 0.0 0.0 0.0 0.2 24.1 0.7 0.0 2.3 3.0 0.7 1.6 5.3 1.6 1.2 3.1 0.0 14.8 33.5 27.8 15.0 1.8 5.3 2.4 7.8 10.8 18.5 30.4 21.3 20.4 2.7 0.5 0.1 0.0 9.5 8.8 2.4
0.0 0.0 0.0 0.0 0.0 0.0 0.0 0.0 0.0 0.0 0.0 0.0 0.0 0.0 0.0 21.8 1.5 0.0 0.0 0.0 0.6 0.7 7.4 2.3 6.4 4.1 9.4 18.6 16.6 14.7 17.1 8.8 6.0 1.3 1.6 4.3 18.2 20.6 17.1 28.3 13.9 0.0 0.1 3.8 2.6 2.6 4.1
0.0 0.0 0.0 0.0 0.0 0.0 0.0 0.0 0.0 0.0 0.0 0.0 0.3 0.0 0.0 3.1 4.4 0.0 0.0 0.0 0.0 0.0 0.5 1.2 2.7 4.4 7.1 13.1 10.3 6.8 10.0 5.2 7.9 12.7 0.5 5.7 4.0 8.4 10.4 7.2 1.8 0.6 1.2 1.5 0.7 2.9 3.9

GFSGBSN_prec_kuchsnow_228.txt.gz
Snowfall_Accumulation
0.0 0.0 0.0 0.0 0.0 0.0 0.0 0.0 0.0 0.0 0.0 0.0 0.0 0.0 0.0 0.0 0.0 0.0 0.0 0.0 0.0 0.0 0.0 0.0 0.0 0.0 0.0 0.0 0.0 0.0 0.0 0.0 0.0 0.0 0.0 0.0 0.0 0.0 0.0 0.0 0.0 0.0 0.0 0.0 0.0 0.0 0.0
0.0 0.0 0.0 0.0 0.0 0.0 0.0 0.0 0.0 0.0 0.0 0.0 0.0 0.0 0.0 0.0 0.0 0.0 0.0 0.0 0.0 0.0 0.0 0.0 0.0 0.0 0.0 0.0 0.0 0.0 0.0 0.0 0.0 0.0 0.0 0.0 0.0 0.0 0.0 0.0 0.0 0.0 0.0 0.0 0.0 0.0 0.0
0.0 0.0 0.0 0.0 0.0 0.0 0.0 0.0 0.0 0.0 0.0 0.0 0.0 0.0 0.0 0.0 0.0 0.0 0.0 0.0 0.0 0.0 0.0 0.0 0.0 0.0 0.0 0.0 0.0 0.0 0.0 0.0 0.0 0.0 0.0 0.0 0.0 0.0 0.0 0.0 0.0 0.0 0.0 0.0 0.0 0.0 0.0
0.0 0.0 0.0 0.0 0.0 0.0 0.0 0.0 0.0 0.0 0.0 0.0 0.0 0.0 0.0 0.0 0.0 0.0 0.0 0.0 0.0 0.0 0.0 0.0 0.0 0.0 0.0 0.0 0.0 0.0 0.0 0.0 0.0 0.0 0.0 0.0 0.0 0.0 0.0 0.0 0.0 0.0 0.0 0.0 0.0 0.0 0.0
0.0 0.0 0.0 0.0 0.0 0.0 0.0 0.0 0.0 0.0 0.0 0.0 0.0 0.0 0.0 0.0 0.0 0.0 0.0 0.0 0.0 0.0 0.0 0.0 0.0 0.0 0.0 0.0 0.0 0.0 0.0 0.0 0.0 0.0 0.0 0.0 0.0 0.0 0.0 0.0 0.0 0.0 0.0 0.0 0.0 0.0 0.0
0.0 0.0 0.0 0.0 0.0 0.0 0.0 0.0 0.0 0.0 0.0 0.0 0.0 0.0 0.0 0.0 0.0 0.0 0.0 0.0 0.0 0.0 0.0 0.0 0.0 0.0 0.0 0.0 0.0 0.0 0.0 0.0 0.0 0.0 0.0 0.0 0.0 0.0 0.0 0.0 0.0 0.0 0.0 0.0 0.0 0.0 0.0
0.0 0.0 0.0 0.0 0.0 0.0 0.0 0.0 0.0 0.0 0.0 0.0 0.0 0.0 0.0 0.0 0.0 0.0 0.0 0.0 0.0 0.0 0.0 0.0 0.0 0.0 0.0 0.0 0.0 0.0 0.0 0.0 0.0 0.0 0.0 0.0 0.0 0.0 0.0 0.0 0.0 0.0 0.0 0.0 0.0 0.0 0.0
0.0 0.0 0.0 0.0 0.0 0.0 0.0 0.0 0.0 0.0 0.0 0.0 0.0 0.0 0.0 0.0 0.0 0.0 0.0 0.0 0.0 0.0 0.3 0.0 0.0 0.0 0.0 0.0 0.0 0.0 0.0 0.0 0.0 0.0 0.0 0.0 0.0 0.0 0.0 0.0 0.0 0.0 0.0 0.0 0.0 0.0 0.0
0.0 0.0 0.0 0.0 0.0 0.0 0.0 0.0 0.0 0.0 0.0 0.0 0.0 0.0 0.0 0.0 0.0 0.0 0.0 0.0 0.0 0.0 0.4 0.0 0.0 0.0 0.0 0.0 0.0 0.0 0.0 0.0 0.0 0.0 0.0 0.0 0.0 0.0 0.0 0.0 0.0 0.0 0.0 0.0 0.0 0.0 0.0
0.0 0.0 0.0 0.0 0.0 0.0 0.0 0.0 0.0 0.0 0.0 0.0 0.0 0.0 0.0 0.0 0.0 0.0 0.0 0.0 0.0 0.0 3.3 0.0 0.0 0.0 0.0 0.0 0.0 0.0 0.0 0.0 0.0 0.0 0.0 0.0 0.0 0.0 0.0 0.0 0.0 0.0 0.0 0.0 0.0 0.0 0.0
0.0 0.0 0.0 0.0 0.0 0.0 0.0 0.0 0.0 0.0 0.0 0.0 0.0 0.0 0.0 0.0 0.0 0.0 0.0 0.0 0.0 0.0 46.0 0.2 0.0 0.0 0.0 0.0 0.0 0.0 0.0 0.0 0.0 0.0 0.0 0.0 0.0 0.0 0.0 0.0 0.0 0.0 0.0 0.0 0.0 0.0 0.0
0.0 0.0 0.0 0.0 0.0 0.0 0.0 0.0 0.0 0.0 0.0 0.0 0.0 0.0 0.0 0.0 0.0 0.0 0.0 0.0 0.0 22.0 61.1 0.7 0.0 0.0 0.0 0.0 0.0 0.0 0.0 0.0 0.0 0.0 0.0 0.0 0.0 0.0 0.0 0.0 0.0 0.0 0.0 0.0 0.0 0.1 0.1
0.0 0.0 0.0 0.0 0.0 0.0 0.0 0.0 0.0 0.0 0.0 0.0 0.0 0.0 0.0 0.0 0.0 0.0 0.0 0.0 35.2 73.9 0.0 0.6 0.0 0.0 0.0 0.0 0.0 0.0 0.0 0.0 0.0 0.4 0.2 0.0 0.0 0.0 0.0 0.0 0.0 0.0 0.0 2.9 2.4 1.1 0.1
0.0 0.0 0.0 0.0 0.0 0.0 0.0 0.0 0.0 0.0 0.0 0.0 0.0 0.0 0.0 0.0 0.0 0.0 0.0 5.7 86.1 6.4 2.3 0.0 0.0 0.0 0.1 0.0 0.0 0.0 0.2 0.2 0.0 0.0 0.1 0.4 0.2 0.0 0.0 0.0 0.0 0.0 0.0 0.8 2.9 0.8 0.0
0.0 0.0 0.0 0.0 0.0 0.0 0.0 0.0 0.0 0.0 0.0 0.0 0.0 0.0 0.0 0.0 0.0 0.0 2.2 83.9 39.3 0.9 0.0 0.0 0.0 0.6 0.8 0.2 0.1 0.0 1.5 2.0 1.2 0.0 2.1 1.9 0.0 0.0 0.0 0.0 0.0 0.0 0.5 0.0 1.9 0.3 1.1
0.0 0.0 0.0 0.0 0.0 0.0 0.0 0.0 0.0 0.0 0.0 0.0 0.0 0.0 0.0 0.0 0.0 0.0 20.9 48.0 14.2 0.0 0.2 0.0 1.5 0.4 1.7 0.3 0.8 0.7 0.4 1.6 1.3 0.1 0.0 1.3 6.1 0.0 0.0 0.0 0.0 0.0 0.0 2.9 4.8 23.7 12.1
0.0 0.0 0.0 0.0 0.0 0.0 0.0 0.0 0.0 0.0 0.0 0.0 0.0 3.7 0.0 0.0 0.0 0.8 58.7 14.1 5.1 0.0 0.0 1.5 1.0 2.5 0.5 0.9 2.7 3.6 2.8 0.2 2.3 0.3 0.0 1.0 3.9 0.3 0.0 0.0 0.1 0.2 0.7 0.7 0.9 7.0 14.4
0.0 0.0 0.0 0.0 0.0 0.0 0.0 0.0 0.0 0.0 0.0 0.0 0.0 31.1 0.0 0.0 18.5 25.5 29.8 9.1 0.6 0.0 0.0 1.1 0.7 0.8 1.9 1.6 1.9 3.3 5.3 2.0 0.0 0.4 2.2 1.8 5.3 6.3 0.1 0.0 0.0 0.2 3.6 7.0 34.5 30.0 18.7
0.0 0.0 0.0 0.0 0.0 0.0 0.0 0.0 0.0 0.0 0.0 0.0 8.1 12.3 0.0 0.0 52.5 32.6 8.3 9.4 3.1 1.9 1.2 2.0 1.3 0.4 0.6 1.2 5.9 2.3 2.1 0.0 0.7 2.7 4.6 2.7 8.4 13.2 3.0 0.8 0.0 5.1 5.6 5.9 9.8 22.1 24.3
0.0 0.0 0.0 0.0 0.0 0.0 0.0 0.0 0.0 0.0 0.0 0.0 13.5 51.3 8.6 0.0 4.0 6.1 8.5 10.6 7.5 0.0 0.9 0.0 2.0 0.0 2.3 4.7 0.8 4.4 2.8 0.9 2.5 2.5 0.2 1.3 4.6 6.1 10.8 2.3 1.7 4.4 2.3 3.3 11.5 27.5 16.9
0.0 0.0 0.0 0.0 0.0 0.0 0.0 0.0 0.0 0.0 0.0 0.0 23.6 30.5 0.0 33.2 14.8 5.6 6.5 5.0 5.4 5.9 1.2 0.0 2.3 0.8 2.0 9.9 4.6 2.9 2.0 3.9 3.2 0.0 0.3 6.0 10.8 4.5 3.0 0.8 0.8 3.1 3.3 2.4 6.8 3.8 12.9
0.0 0.0 0.0 0.0 0.0 0.0 0.0 0.0 0.0 0.0 0.0 0.0 53.7 14.3 1.5 3.1 1.6 8.9 6.1 10.2 4.2 3.4 7.4 5.2 5.6 1.6 1.1 4.9 1.9 6.6 2.7 1.4 5.1 0.1 3.0 4.7 13.7 7.4 13.0 1.2 2.8 6.0 4.6 2.4 5.2 4.1 4.5
0.0 0.0 0.0 0.0 0.0 0.0 0.0 0.0 0.0 0.0 0.0 6.8 3.5 0.0 4.1 3.3 2.0 6.2 7.3 6.0 6.3 7.0 1.5 0.6 2.4 3.6 3.9 1.8 0.1 0.1 0.0 0.0 0.0 2.2 3.5 9.3 18.6 18.7 21.8 3.1 4.4 16.2 8.2 5.7 4.5 1.8 1.4
0.0 0.0 0.0 0.0 0.0 0.0 0.0 0.0 0.0 0.0 0.0 0.0 0.0 0.0 11.2 19.9 4.8 3.4 1.1 0.3 3.3 4.3 14.9 1.7 0.6 2.4 0.0 0.0 0.0 0.0 0.0 0.6 0.0 1.0 1.2 11.0 13.2 17.1 25.1 8.1 32.2 6.8 2.5 1.7 0.8 0.6 0.3
0.0 0.0 0.0 0.0 0.0 0.0 0.0 0.0 0.0 0.0 0.0 0.0 0.0 0.0 8.2 20.3 1.7 3.1 2.0 2.3 0.7 1.7 5.2 6.1 2.1 0.1 0.0 0.0 8.1 18.9 17.8 13.5 9.2 4.6 3.0 3.1 7.2 22.6 26.9 16.4 6.4 1.8 0.3 0.6 3.6 2.7 0.3
0.0 0.0 0.0 0.0 0.0 0.0 0.0 0.0 0.0 0.0 0.0 0.0 0.0 0.0 0.8 20.3 6.0 0.1 2.0 0.4 2.6 5.2 5.0 3.7 0.0 0.0 0.0 4.3 18.3 34.0 22.5 10.2 8.7 4.6 1.7 2.4 3.5 14.0 25.1 24.3 14.0 0.2 0.0 0.0 0.0 9.9 0.5
0.0 0.0 0.0 0.0 0.0 0.0 0.0 0.0 0.0 0.0 0.0 0.0 0.0 0.0 0.2 24.3 0.7 0.0 2.3 3.0 0.7 1.6 5.3 1.6 1.2 3.1 0.0 14.8 33.5 27.9 15.1 1.8 5.3 2.4 7.8 10.8 18.6 30.8 21.5 20.8 2.7 0.5 0.1 0.0 9.5 8.8 2.4
0.0 0.0 0.0 0.0 0.0 0.0 0.0 0.0 0.0 0.0 0.0 0.0 0.0 0.0 0.0 22.0 1.5 0.0 0.0 0.0 0.6 0.7 7.5 2.3 6.4 4.1 9.4 18.6 16.7 14.7 17.1 8.8 6.0 1.3 1.6 4.3 18.3 20.6 17.4 28.9 14.0 0.0 0.1 3.8 2.6 2.6 4.1
0.0 0.0 0.0 0.0 0.0 0.0 0.0 0.0 0.0 0.0 0.0 0.0 0.3 0.0 0.0 3.3 4.4 0.0 0.0 0.0 0.0 0.0 0.5 1.2 2.7 4.4 7.1 13.2 10.4 7.1 10.0 5.2 7.9 12.7 0.5 5.8 4.0 8.4 10.4 7.2 1.8 0.6 1.2 1.5 0.7 2.9 3.9

GFSGBSN_prec_kuchsnow_231.txt.gz
Snowfall_Accumulation
0.0 0.0 0.0 0.0 0.0 0.0 0.0 0.0 0.0 0.0 0.0 0.0 0.0 0.0 0.0 0.0 0.0 0.0 0.0 0.0 0.0 0.0 0.0 0.0 0.0 0.0 0.0 0.0 0.0 0.0 0.0 0.0 0.0 0.0 0.0 0.0 0.0 0.0 0.0 0.0 0.0 0.0 0.0 0.0 0.0 0.0 0.0
0.0 0.0 0.0 0.0 0.0 0.0 0.0 0.0 0.0 0.0 0.0 0.0 0.0 0.0 0.0 0.0 0.0 0.0 0.0 0.0 0.0 0.0 0.0 0.0 0.0 0.0 0.0 0.0 0.0 0.0 0.0 0.0 0.0 0.0 0.0 0.0 0.0 0.0 0.0 0.0 0.0 0.0 0.0 0.0 0.0 0.0 0.0
0.0 0.0 0.0 0.0 0.0 0.0 0.0 0.0 0.0 0.0 0.0 0.0 0.0 0.0 0.0 0.0 0.0 0.0 0.0 0.0 0.0 0.0 0.0 0.0 0.0 0.0 0.0 0.0 0.0 0.0 0.0 0.0 0.0 0.0 0.0 0.0 0.0 0.0 0.0 0.0 0.0 0.0 0.0 0.0 0.0 0.0 0.0
0.0 0.0 0.0 0.0 0.0 0.0 0.0 0.0 0.0 0.0 0.0 0.0 0.0 0.0 0.0 0.0 0.0 0.0 0.0 0.0 0.0 0.0 0.0 0.0 0.0 0.0 0.0 0.0 0.0 0.0 0.0 0.0 0.0 0.0 0.0 0.0 0.0 0.0 0.0 0.0 0.0 0.0 0.0 0.0 0.0 0.0 0.0
0.0 0.0 0.0 0.0 0.0 0.0 0.0 0.0 0.0 0.0 0.0 0.0 0.0 0.0 0.0 0.0 0.0 0.0 0.0 0.0 0.0 0.0 0.0 0.0 0.0 0.0 0.0 0.0 0.0 0.0 0.0 0.0 0.0 0.0 0.0 0.0 0.0 0.0 0.0 0.0 0.0 0.0 0.0 0.0 0.0 0.0 0.0
0.0 0.0 0.0 0.0 0.0 0.0 0.0 0.0 0.0 0.0 0.0 0.0 0.0 0.0 0.0 0.0 0.0 0.0 0.0 0.0 0.0 0.0 0.0 0.0 0.0 0.0 0.0 0.0 0.0 0.0 0.0 0.0 0.0 0.0 0.0 0.0 0.0 0.0 0.0 0.0 0.0 0.0 0.0 0.0 0.0 0.0 0.0
0.0 0.0 0.0 0.0 0.0 0.0 0.0 0.0 0.0 0.0 0.0 0.0 0.0 0.0 0.0 0.0 0.0 0.0 0.0 0.0 0.0 0.0 0.0 0.0 0.0 0.0 0.0 0.0 0.0 0.0 0.0 0.0 0.0 0.0 0.0 0.0 0.0 0.0 0.0 0.0 0.0 0.0 0.0 0.0 0.0 0.0 0.0
0.0 0.0 0.0 0.0 0.0 0.0 0.0 0.0 0.0 0.0 0.0 0.0 0.0 0.0 0.0 0.0 0.0 0.0 0.0 0.0 0.0 0.0 0.3 0.0 0.0 0.0 0.0 0.0 0.0 0.0 0.0 0.0 0.0 0.0 0.0 0.0 0.0 0.0 0.0 0.0 0.0 0.0 0.0 0.0 0.0 0.0 0.0
0.0 0.0 0.0 0.0 0.0 0.0 0.0 0.0 0.0 0.0 0.0 0.0 0.0 0.0 0.0 0.0 0.0 0.0 0.0 0.0 0.0 0.0 1.3 0.0 0.0 0.0 0.0 0.0 0.0 0.0 0.0 0.0 0.0 0.0 0.0 0.0 0.0 0.0 0.0 0.0 0.0 0.0 0.0 0.0 0.0 0.0 0.0
0.0 0.0 0.0 0.0 0.0 0.0 0.0 0.0 0.0 0.0 0.0 0.0 0.0 0.0 0.0 0.0 0.0 0.0 0.0 0.0 0.0 0.0 3.3 0.0 0.0 0.0 0.0 0.0 0.0 0.0 0.0 0.0 0.0 0.0 0.0 0.0 0.0 0.0 0.0 0.0 0.0 0.0 0.0 0.0 0.0 0.0 0.0
0.0 0.0 0.0 0.0 0.0 0.0 0.0 0.0 0.0 0.0 0.0 0.0 0.0 0.0 0.0 0.0 0.0 0.0 0.0 0.0 0.0 0.0 46.5 0.2 0.0 0.0 0.0 0.0 0.0 0.0 0.0 0.0 0.0 0.0 0.0 0.0 0.0 0.0 0.0 0.0 0.0 0.0 0.0 0.0 0.0 0.0 0.0
0.0 0.0 0.0 0.0 0.0 0.0 0.0 0.0 0.0 0.0 0.0 0.0 0.0 0.0 0.0 0.0 0.0 0.0 0.0 0.0 0.0 22.0 61.1 0.7 0.0 0.0 0.0 0.0 0.0 0.0 0.0 0.0 0.0 0.0 0.0 0.0 0.0 0.0 0.0 0.0 0.0 0.0 0.0 0.0 0.0 0.1 0.1
0.0 0.0 0.0 0.0 0.0 0.0 0.0 0.0 0.0 0.0 0.0 0.0 0.0 0.0 0.0 0.0 0.0 0.0 0.0 0.0 35.2 73.9 0.0 0.6 0.0 0.0 0.0 0.0 0.0 0.0 0.1 0.0 0.0 0.4 0.2 0.0 0.0 0.0 0.0 0.0 0.0 0.0 0.0 3.0 2.5 1.3 0.1
0.0 0.0 0.0 0.0 0.0 0.0 0.0 0.0 0.0 0.0 0.0 0.0 0.0 0.0 0.0 0.0 0.0 0.0 0.0 5.7 86.1 6.4 2.3 0.0 0.0 0.0 0.1 0.0 0.0 0.0 0.2 0.5 0.0 0.0 0.1 0.4 0.2 0.0 0.0 0.0 0.0 0.0 0.0 0.8 2.9 0.8 0.0
0.0 0.0 0.0 0.0 0.0 0.0 0.0 0.0 0.0 0.0 0.0 0.0 0.0 0.0 0.0 0.0 0.0 0.0 2.2 83.9 39.3 0.9 0.0 0.0 0.0 0.6 0.8 0.2 0.1 0.0 1.5 2.0 1.2 0.0 2.1 1.9 0.0 0.0 0.0 0.0 0.0 0.0 0.5 0.0 1.9 0.3 1.1
0.0 0.0 0.0 0.0 0.0 0.0 0.0 0.0 0.0 0.0 0.0 0.0 0.0 0.0 0.0 0.0 0.0 0.0 20.9 48.0 14.2 0.0 0.2 0.0 1.5 0.4 1.7 0.3 0.8 0.7 0.4 1.6 1.3 0.1 0.0 1.3 6.1 0.0 0.0 0.0 0.0 0.0 0.0 3.0 4.9 24.4 12.3
0.0 0.0 0.0 0.0 0.0 0.0 0.0 0.0 0.0 0.0 0.0 0.0 0.0 3.7 0.0 0.0 0.0 0.8 58.7 14.1 5.1 0.0 0.0 1.5 1.0 2.5 0.5 0.9 2.7 3.6 2.8 0.2 2.3 0.3 0.0 1.0 3.9 0.3 0.0 0.0 0.1 0.2 0.7 0.7 0.9 7.3 15.1
0.0 0.0 0.0 0.0 0.0 0.0 0.0 0.0 0.0 0.0 0.0 0.0 0.0 31.1 0.0 0.0 18.5 25.5 29.8 9.1 0.6 0.0 0.0 1.1 0.7 0.8 1.9 1.6 1.9 3.3 5.3 2.0 0.0 0.4 2.2 1.8 5.3 6.3 0.1 0.0 0.0 0.2 4.0 7.3 35.4 31.7 21.9
0.0 0.0 0.0 0.0 0.0 0.0 0.0 0.0 0.0 0.0 0.0 0.0 8.1 12.3 0.0 0.0 52.5 32.6 8.3 9.4 3.1 1.9 1.2 2.0 1.3 0.4 0.6 1.2 5.9 2.3 2.1 0.0 0.7 2.7 4.6 2.7 8.4 13.2 3.0 0.8 0.0 5.1 6.7 6.5 10.2 22.5 24.3
0.0 0.0 0.0 0.0 0.0 0.0 0.0 0.0 0.0 0.0 0.0 0.0 13.5 51.3 8.6 0.0 4.0 6.1 8.5 10.6 7.5 0.0 0.9 0.0 2.0 0.0 2.3 4.7 0.8 4.4 2.8 0.9 2.5 2.5 0.2 1.3 4.6 6.1 10.8 2.3 1.7 4.4 2.3 3.3 12.1 28.3 16.9
0.0 0.0 0.0 0.0 0.0 0.0 0.0 0.0 0.0 0.0 0.0 0.0 23.6 30.5 0.0 33.2 14.8 5.6 6.5 5.0 5.4 5.9 1.2 0.0 2.3 0.8 2.1 9.9 4.6 2.9 2.0 3.9 3.2 0.0 0.3 6.0 10.8 4.5 3.0 0.8 0.8 3.1 3.3 2.4 6.8 3.8 12.9
0.0 0.0 0.0 0.0 0.0 0.0 0.0 0.0 0.0 0.0 0.0 0.0 53.7 14.3 1.5 3.1 1.6 8.9 6.1 10.2 4.2 3.4 7.4 5.2 5.6 1.6 1.1 4.9 1.9 6.6 2.7 1.4 5.1 0.1 3.0 4.7 13.7 7.4 13.0 1.2 2.8 6.0 4.6 2.4 5.2 4.1 4.5
0.0 0.0 0.0 0.0 0.0 0.0 0.0 0.0 0.0 0.0 0.0 6.8 3.5 0.0 4.1 3.3 2.0 6.2 7.3 6.0 6.3 7.0 1.5 0.6 2.4 3.6 3.9 1.8 0.1 0.1 0.0 0.0 0.0 2.2 3.5 9.3 18.7 18.9 21.8 3.1 4.4 16.2 8.2 5.7 4.5 1.8 1.4
0.0 0.0 0.0 0.0 0.0 0.0 0.0 0.0 0.0 0.0 0.0 0.0 0.0 0.0 11.3 19.9 4.8 3.4 1.1 0.3 3.3 4.3 14.9 1.7 0.6 2.4 0.0 0.0 0.0 0.0 0.0 0.6 0.0 1.0 1.2 11.0 13.4 17.6 25.3 8.1 32.2 6.8 2.5 1.7 0.8 0.6 0.3
0.0 0.0 0.0 0.0 0.0 0.0 0.0 0.0 0.0 0.0 0.0 0.0 0.0 0.0 8.3 20.5 1.7 3.1 2.0 2.3 0.7 1.7 5.2 6.1 2.1 0.1 0.0 0.0 8.1 18.9 17.8 13.5 9.2 4.6 3.0 3.1 7.4 23.2 27.3 16.4 6.4 1.8 0.3 0.6 3.6 2.7 0.3
0.0 0.0 0.0 0.0 0.0 0.0 0.0 0.0 0.0 0.0 0.0 0.0 0.0 0.0 0.8 20.9 6.0 0.1 2.0 0.4 2.6 5.2 5.0 3.7 0.0 0.0 0.0 4.3 18.4 34.0 22.5 10.2 8.7 4.6 1.7 2.4 3.5 14.5 25.6 24.5 14.0 0.2 0.0 0.0 0.0 9.9 0.5
0.0 0.0 0.0 0.0 0.0 0.0 0.0 0.0 0.0 0.0 0.0 0.0 0.0 0.0 0.2 24.6 0.7 0.0 2.3 3.0 0.7 1.6 5.3 1.6 1.2 3.1 0.0 14.8 33.6 27.9 15.1 1.8 5.3 2.4 7.8 10.8 18.7 31.3 21.8 21.4 2.7 0.5 0.1 0.0 9.5 8.8 2.4
0.0 0.0 0.0 0.0 0.0 0.0 0.0 0.0 0.0 0.0 0.0 0.0 0.0 0.0 0.0 22.1 1.6 0.0 0.0 0.0 0.6 0.7 7.5 2.3 6.4 4.1 9.4 18.6 16.8 14.7 17.1 8.9 6.0 1.3 1.6 4.3 18.5 20.8 17.6 29.4 14.2 0.0 0.1 3.8 2.6 2.6 4.1
0.0 0.0 0.0 0.0 0.0 0.0 0.0 0.0 0.0 0.0 0.0 0.0 0.3 0.0 0.0 3.5 4.5 0.0 0.0 0.0 0.0 0.0 0.5 1.2 2.7 4.4 7.1 13.2 10.4 7.2 10.0 5.3 7.9 12.7 0.5 5.8 4.0 8.4 10.4 7.2 1.8 0.6 1.2 1.5 0.7 2.9 3.9